Wetterdaten: Freitag, 20.01.2012
Datum Zeit Temp. Innen Temp. Aussen UV X Diff Temp. Feuchte Inne Feuchte Auss Sonnenschein Luftdruck Regen ab 0,1 Wind Sonnenschein T Regendauer Windben
20.01.2012 00:00 12,6 C 6,1 C 0,0 UV-I 0,0 C 59 % 94 % 0 % 1013,0 hPa 0,0 l/m 6,4 km/h (2 Bft) 0 min 2 min 9,6 km/h (2 Bft)
20.01.2012 00:02 12,6 C 6,1 C 0,0 UV-I 0,0 C 59 % 94 % 0 % 1013,0 hPa 0,1 l/m 5,6 km/h (1 Bft) 0 min 2 min 9,6 km/h (2 Bft)
20.01.2012 00:04 12,6 C 6,1 C 0,0 UV-I 0,0 C 59 % 94 % 0 % 1012,5 hPa 0,0 l/m 5,6 km/h (1 Bft) 0 min 0 min 0,0 km/h (0 Bft)
20.01.2012 00:06 12,6 C 6,1 C 0,0 UV-I 0,0 C 59 % 94 % 0 % 1012,5 hPa 0,0 l/m 6,8 km/h (2 Bft) 0 min 0 min 12,8 km/h (3 Bft)
20.01.2012 00:08 12,6 C 6,1 C 0,0 UV-I 0,0 C 59 % 94 % 0 % 1012,5 hPa 0,0 l/m 6,8 km/h (2 Bft) 0 min 0 min 12,8 km/h (3 Bft)
20.01.2012 00:10 12,6 C 6,2 C 0,0 UV-I 0,0 C 59 % 94 % 0 % 1012,5 hPa 0,0 l/m 7,2 km/h (2 Bft) 0 min 0 min 6,8 km/h (2 Bft)
20.01.2012 00:12 12,6 C 6,1 C 0,0 UV-I 0,0 C 59 % 94 % 0 % 1012,5 hPa 0,0 l/m 8,0 km/h (2 Bft) 0 min 0 min 12,0 km/h (2 Bft)
20.01.2012 00:14 12,6 C 6,1 C 0,0 UV-I 0,0 C 59 % 94 % 0 % 1012,5 hPa 0,0 l/m 8,0 km/h (2 Bft) 0 min 0 min 12,0 km/h (2 Bft)
20.01.2012 00:16 12,6 C 6,1 C 0,0 UV-I 0,0 C 59 % 94 % 0 % 1012,5 hPa 0,0 l/m 7,6 km/h (2 Bft) 0 min 0 min 10,4 km/h (2 Bft)
20.01.2012 00:18 12,6 C 6,1 C 0,0 UV-I 0,0 C 59 % 94 % 0 % 1012,5 hPa 0,0 l/m 7,6 km/h (2 Bft) 0 min 0 min 8,4 km/h (2 Bft)
20.01.2012 00:20 12,6 C 6,1 C 0,0 UV-I 0,0 C 59 % 94 % 0 % 1012,5 hPa 0,0 l/m 7,6 km/h (2 Bft) 0 min 0 min 8,4 km/h (2 Bft)
20.01.2012 00:22 12,6 C 6,1 C 0,0 UV-I 0,0 C 59 % 94 % 0 % 1012,5 hPa 0,0 l/m 8,4 km/h (2 Bft) 0 min 0 min 27,3 km/h (4 Bft)
20.01.2012 00:24 12,6 C 6,1 C 0,0 UV-I 0,0 C 59 % 94 % 0 % 1011,9 hPa 0,0 l/m 8,4 km/h (2 Bft) 0 min 0 min 14,9 km/h (3 Bft)
20.01.2012 00:26 12,6 C 6,1 C 0,0 UV-I 0,0 C 59 % 94 % 0 % 1011,9 hPa 0,0 l/m 8,0 km/h (2 Bft) 0 min 0 min 20,1 km/h (4 Bft)
20.01.2012 00:28 12,6 C 6,1 C 0,0 UV-I 0,0 C 59 % 94 % 0 % 1011,9 hPa 0,0 l/m 9,2 km/h (2 Bft) 0 min 0 min 24,5 km/h (4 Bft)
20.01.2012 00:30 12,6 C 6,1 C 0,0 UV-I 0,0 C 59 % 94 % 0 % 1011,9 hPa 0,0 l/m 9,6 km/h (2 Bft) 0 min 0 min 24,5 km/h (4 Bft)
20.01.2012 00:32 12,4 C 6,1 C 0,0 UV-I 0,0 C 59 % 94 % 0 % 1011,9 hPa 0,0 l/m 10,4 km/h (2 Bft) 0 min 0 min 14,5 km/h (3 Bft)
20.01.2012 00:34 12,6 C 6,1 C 0,0 UV-I 0,0 C 59 % 94 % 0 % 1011,9 hPa 0,0 l/m 11,6 km/h (2 Bft) 0 min 0 min 17,7 km/h (3 Bft)
20.01.2012 00:36 12,4 C 6,1 C 0,0 UV-I 0,0 C 59 % 94 % 0 % 1011,9 hPa 0,0 l/m 11,6 km/h (2 Bft) 0 min 0 min 17,7 km/h (3 Bft)
20.01.2012 00:38 12,4 C 6,2 C 0,0 UV-I 0,0 C 59 % 94 % 0 % 1011,9 hPa 0,0 l/m 11,6 km/h (2 Bft) 0 min 0 min 20,1 km/h (4 Bft)
20.01.2012 00:40 12,4 C 6,2 C 0,0 UV-I 0,0 C 59 % 94 % 0 % 1011,9 hPa 0,0 l/m 10,4 km/h (2 Bft) 0 min 2 min 20,1 km/h (4 Bft)
20.01.2012 00:42 12,4 C 6,3 C 0,0 UV-I 0,0 C 59 % 93 % 0 % 1011,9 hPa 0,0 l/m 10,0 km/h (2 Bft) 0 min 0 min 32,9 km/h (5 Bft)
20.01.2012 00:44 12,4 C 6,3 C 0,0 UV-I 0,0 C 59 % 93 % 0 % 1011,9 hPa 0,0 l/m 9,6 km/h (2 Bft) 0 min 0 min 11,2 km/h (2 Bft)
20.01.2012 00:46 12,4 C 6,3 C 0,0 UV-I 0,0 C 59 % 94 % 0 % 1011,9 hPa 0,0 l/m 9,6 km/h (2 Bft) 0 min 0 min 22,9 km/h (4 Bft)
20.01.2012 00:48 12,5 C 6,3 C 0,0 UV-I 0,0 C 59 % 93 % 0 % 1011,9 hPa 0,0 l/m 9,6 km/h (2 Bft) 0 min 0 min 22,9 km/h (4 Bft)
20.01.2012 00:50 12,5 C 6,2 C 0,0 UV-I 0,0 C 59 % 93 % 0 % 1011,9 hPa 0,0 l/m 9,2 km/h (2 Bft) 0 min 0 min 13,3 km/h (3 Bft)
20.01.2012 00:52 12,3 C 6,3 C 0,0 UV-I 0,0 C 59 % 93 % 0 % 1011,9 hPa 0,0 l/m 9,6 km/h (2 Bft) 0 min 0 min 16,1 km/h (3 Bft)
20.01.2012 00:54 12,3 C 6,3 C 0,0 UV-I 0,0 C 59 % 93 % 0 % 1011,9 hPa 0,0 l/m 10,0 km/h (2 Bft) 0 min 0 min 16,1 km/h (3 Bft)
20.01.2012 00:56 12,5 C 6,2 C 0,0 UV-I 0,0 C 59 % 93 % 0 % 1011,9 hPa 0,0 l/m 9,6 km/h (2 Bft) 0 min 0 min 15,7 km/h (3 Bft)
20.01.2012 00:58 12,5 C 6,3 C 0,0 UV-I 0,0 C 59 % 93 % 0 % 1011,9 hPa 0,0 l/m 9,2 km/h (2 Bft) 0 min 0 min 14,5 km/h (3 Bft)
20.01.2012 01:00 12,3 C 6,3 C 0,0 UV-I 0,0 C 59 % 93 % 0 % 1011,9 hPa 0,0 l/m 9,2 km/h (2 Bft) 0 min 0 min 12,8 km/h (3 Bft)
20.01.2012 01:02 12,3 C 6,3 C 0,0 UV-I 0,0 C 59 % 93 % 0 % 1011,9 hPa 0,0 l/m 9,6 km/h (2 Bft) 0 min 0 min 16,1 km/h (3 Bft)
20.01.2012 01:04 12,3 C 6,3 C 0,0 UV-I 0,0 C 59 % 93 % 0 % 1011,2 hPa 0,0 l/m 8,8 km/h (2 Bft) 0 min 0 min 26,9 km/h (4 Bft)
20.01.2012 01:06 12,3 C 6,3 C 0,0 UV-I 0,0 C 59 % 93 % 0 % 1011,2 hPa 0,0 l/m 9,6 km/h (2 Bft) 0 min 0 min 7,2 km/h (2 Bft)
20.01.2012 01:08 12,3 C 6,3 C 0,0 UV-I 0,0 C 59 % 93 % 0 % 1011,2 hPa 0,0 l/m 9,6 km/h (2 Bft) 0 min 0 min 10,4 km/h (2 Bft)
20.01.2012 01:10 12,4 C 6,2 C 0,0 UV-I 0,0 C 59 % 93 % 0 % 1011,2 hPa 0,0 l/m 10,0 km/h (2 Bft) 0 min 0 min 23,3 km/h (4 Bft)
20.01.2012 01:12 12,3 C 6,3 C 0,0 UV-I 0,0 C 59 % 93 % 0 % 1011,2 hPa 0,0 l/m 9,6 km/h (2 Bft) 0 min 0 min 23,3 km/h (4 Bft)
20.01.2012 01:14 12,3 C 6,3 C 0,0 UV-I 0,0 C 59 % 93 % 0 % 1011,2 hPa 0,0 l/m 9,6 km/h (2 Bft) 0 min 2 min 7,2 km/h (2 Bft)
20.01.2012 01:16 12,4 C 6,3 C 0,0 UV-I 0,0 C 59 % 93 % 0 % 1011,2 hPa 0,0 l/m 9,6 km/h (2 Bft) 0 min 2 min 9,2 km/h (2 Bft)
20.01.2012 01:18 12,4 C 6,3 C 0,0 UV-I 0,0 C 59 % 93 % 0 % 1011,2 hPa 0,0 l/m 9,2 km/h (2 Bft) 0 min 2 min 11,6 km/h (2 Bft)
20.01.2012 01:20 12,4 C 6,4 C 0,0 UV-I 0,0 C 59 % 93 % 0 % 1011,2 hPa 0,0 l/m 10,4 km/h (2 Bft) 0 min 2 min 18,1 km/h (3 Bft)
20.01.2012 01:22 12,4 C 6,3 C 0,0 UV-I 0,0 C 59 % 94 % 0 % 1011,2 hPa 0,1 l/m 10,0 km/h (2 Bft) 0 min 2 min 18,1 km/h (3 Bft)
20.01.2012 01:24 12,4 C 6,3 C 0,0 UV-I 0,0 C 59 % 94 % 0 % 1012,6 hPa 0,4 l/m 11,6 km/h (2 Bft) 0 min 2 min 25,7 km/h (4 Bft)
20.01.2012 01:26 12,4 C 6,2 C 0,0 UV-I 0,0 C 59 % 93 % 0 % 1012,6 hPa 0,0 l/m 13,7 km/h (3 Bft) 0 min 2 min 25,7 km/h (4 Bft)
20.01.2012 01:28 12,4 C 5,5 C 0,0 UV-I 0,0 C 59 % 91 % 0 % 1012,6 hPa 0,6 l/m 16,1 km/h (3 Bft) 0 min 2 min 38,9 km/h (6 Bft)
20.01.2012 01:30 12,4 C 4,9 C 0,0 UV-I 0,0 C 59 % 90 % 0 % 1012,6 hPa 0,2 l/m 17,3 km/h (3 Bft) 0 min 0 min 38,9 km/h (6 Bft)
20.01.2012 01:32 12,4 C 4,7 C 0,0 UV-I 0,0 C 58 % 90 % 0 % 1012,6 hPa 0,0 l/m 18,9 km/h (3 Bft) 0 min 0 min 38,9 km/h (6 Bft)
20.01.2012 01:34 12,4 C 4,5 C 0,0 UV-I 0,0 C 58 % 91 % 0 % 1012,6 hPa 0,1 l/m 19,7 km/h (3 Bft) 0 min 0 min 18,9 km/h (3 Bft)
20.01.2012 01:36 12,4 C 4,5 C 0,0 UV-I 0,0 C 58 % 91 % 0 % 1012,6 hPa 0,0 l/m 18,5 km/h (3 Bft) 0 min 0 min 18,9 km/h (3 Bft)
20.01.2012 01:38 12,2 C 4,3 C 0,0 UV-I 0,0 C 58 % 92 % 0 % 1012,6 hPa 0,0 l/m 15,7 km/h (3 Bft) 0 min 0 min 12,0 km/h (2 Bft)
20.01.2012 01:40 12,4 C 4,2 C 0,0 UV-I 0,0 C 58 % 92 % 0 % 1012,6 hPa 0,0 l/m 13,7 km/h (3 Bft) 0 min 0 min 9,2 km/h (2 Bft)
20.01.2012 01:42 12,2 C 4,3 C 0,0 UV-I 0,0 C 58 % 92 % 0 % 1012,6 hPa 0,0 l/m 11,2 km/h (2 Bft) 0 min 0 min 15,7 km/h (3 Bft)
20.01.2012 01:44 12,2 C 4,1 C 0,0 UV-I 0,0 C 57 % 92 % 0 % 1012,6 hPa 0,0 l/m 8,8 km/h (2 Bft) 0 min 0 min 15,7 km/h (3 Bft)
20.01.2012 01:46 12,2 C 4,0 C 0,0 UV-I 0,0 C 57 % 93 % 0 % 1012,6 hPa 0,0 l/m 7,2 km/h (2 Bft) 0 min 0 min 5,2 km/h (1 Bft)
20.01.2012 01:48 12,3 C 4,0 C 0,0 UV-I 0,0 C 57 % 93 % 0 % 1012,6 hPa 0,0 l/m 6,4 km/h (2 Bft) 0 min 0 min 8,4 km/h (2 Bft)
20.01.2012 01:50 12,3 C 4,0 C 0,0 UV-I 0,0 C 57 % 93 % 0 % 1012,6 hPa 0,0 l/m 5,6 km/h (1 Bft) 0 min 0 min 8,4 km/h (2 Bft)
20.01.2012 01:52 12,3 C 3,9 C 0,0 UV-I 0,0 C 57 % 93 % 0 % 1012,6 hPa 0,0 l/m 5,6 km/h (1 Bft) 0 min 0 min 14,1 km/h (3 Bft)
20.01.2012 01:54 12,1 C 3,9 C 0,0 UV-I 0,0 C 57 % 93 % 0 % 1012,6 hPa 0,0 l/m 6,0 km/h (2 Bft) 0 min 0 min 14,1 km/h (3 Bft)
20.01.2012 01:56 12,3 C 3,9 C 0,0 UV-I 0,0 C 57 % 93 % 0 % 1012,6 hPa 0,0 l/m 5,2 km/h (1 Bft) 0 min 0 min 12,8 km/h (3 Bft)
20.01.2012 01:58 12,1 C 3,9 C 0,0 UV-I 0,0 C 57 % 94 % 0 % 1012,6 hPa 0,1 l/m 5,6 km/h (1 Bft) 0 min 0 min 5,2 km/h (1 Bft)
20.01.2012 02:00 12,3 C 3,8 C 0,0 UV-I 0,0 C 57 % 94 % 0 % 1012,6 hPa 0,0 l/m 6,0 km/h (2 Bft) 0 min 0 min 8,8 km/h (2 Bft)
20.01.2012 02:02 12,2 C 3,7 C 0,0 UV-I 0,0 C 57 % 94 % 0 % 1012,6 hPa 0,0 l/m 6,0 km/h (2 Bft) 0 min 0 min 12,4 km/h (3 Bft)
20.01.2012 02:04 12,2 C 3,6 C 0,0 UV-I 0,0 C 57 % 94 % 0 % 1012,1 hPa 0,0 l/m 5,2 km/h (1 Bft) 0 min 0 min 12,4 km/h (3 Bft)
20.01.2012 02:06 12,2 C 3,6 C 0,0 UV-I 0,0 C 57 % 94 % 0 % 1012,1 hPa 0,0 l/m 4,8 km/h (1 Bft) 0 min 0 min 9,6 km/h (2 Bft)
20.01.2012 02:08 12,2 C 3,6 C 0,0 UV-I 0,0 C 57 % 94 % 0 % 1012,1 hPa 0,0 l/m 6,0 km/h (2 Bft) 0 min 0 min 9,6 km/h (2 Bft)
20.01.2012 02:10 12,2 C 3,5 C 0,0 UV-I 0,0 C 57 % 94 % 0 % 1012,1 hPa 0,0 l/m 5,6 km/h (1 Bft) 0 min 0 min 8,0 km/h (2 Bft)
20.01.2012 02:12 12,2 C 3,5 C 0,0 UV-I 0,0 C 57 % 94 % 0 % 1012,1 hPa 0,0 l/m 6,4 km/h (2 Bft) 0 min 0 min 11,6 km/h (2 Bft)
20.01.2012 02:14 12,2 C 3,5 C 0,0 UV-I 0,0 C 57 % 94 % 0 % 1012,1 hPa 0,0 l/m 6,8 km/h (2 Bft) 0 min 0 min 11,6 km/h (2 Bft)
20.01.2012 02:16 12,2 C 3,4 C 0,0 UV-I 0,0 C 57 % 94 % 0 % 1012,1 hPa 0,0 l/m 7,2 km/h (2 Bft) 0 min 0 min 7,2 km/h (2 Bft)
20.01.2012 02:18 12,2 C 3,4 C 0,0 UV-I 0,0 C 57 % 94 % 0 % 1012,1 hPa 0,0 l/m 7,2 km/h (2 Bft) 0 min 0 min 7,2 km/h (2 Bft)
20.01.2012 02:20 12,1 C 3,5 C 0,0 UV-I 0,0 C 57 % 94 % 0 % 1012,1 hPa 0,0 l/m 7,6 km/h (2 Bft) 0 min 0 min 10,4 km/h (2 Bft)
20.01.2012 02:22 12,1 C 3,5 C 0,0 UV-I 0,0 C 57 % 94 % 0 % 1012,1 hPa 0,0 l/m 7,6 km/h (2 Bft) 0 min 0 min 10,4 km/h (2 Bft)
20.01.2012 02:24 12,1 C 3,5 C 0,0 UV-I 0,0 C 57 % 94 % 0 % 1011,6 hPa 0,0 l/m 6,4 km/h (2 Bft) 0 min 0 min 5,2 km/h (1 Bft)
20.01.2012 02:26 12,1 C 3,5 C 0,0 UV-I 0,0 C 56 % 95 % 0 % 1011,6 hPa 0,0 l/m 6,0 km/h (2 Bft) 0 min 0 min 6,4 km/h (2 Bft)
20.01.2012 02:28 12,1 C 3,5 C 0,0 UV-I 0,0 C 56 % 95 % 0 % 1011,6 hPa 0,0 l/m 5,2 km/h (1 Bft) 0 min 0 min 8,0 km/h (2 Bft)
20.01.2012 02:30 12,1 C 3,5 C 0,0 UV-I 0,0 C 56 % 95 % 0 % 1011,6 hPa 0,0 l/m 4,8 km/h (1 Bft) 0 min 0 min 20,9 km/h (4 Bft)
20.01.2012 02:32 12,1 C 3,4 C 0,0 UV-I 0,0 C 57 % 95 % 0 % 1011,6 hPa 0,0 l/m 4,0 km/h (1 Bft) 0 min 0 min 20,9 km/h (4 Bft)
20.01.2012 02:34 12,1 C 3,5 C 0,0 UV-I 0,0 C 56 % 95 % 0 % 1011,6 hPa 0,0 l/m 4,0 km/h (1 Bft) 0 min 0 min 14,1 km/h (3 Bft)
20.01.2012 02:36 12,1 C 3,5 C 0,0 UV-I 0,0 C 56 % 95 % 0 % 1011,6 hPa 0,0 l/m 4,8 km/h (1 Bft) 0 min 0 min 14,1 km/h (3 Bft)
20.01.2012 02:38 11,9 C 3,5 C 0,0 UV-I 0,0 C 56 % 95 % 0 % 1011,6 hPa 0,0 l/m 6,0 km/h (2 Bft) 0 min 0 min 26,1 km/h (4 Bft)
20.01.2012 02:40 11,9 C 3,6 C 0,0 UV-I 0,0 C 56 % 95 % 0 % 1011,6 hPa 0,0 l/m 6,4 km/h (2 Bft) 0 min 0 min 26,1 km/h (4 Bft)
20.01.2012 02:42 11,9 C 3,7 C 0,0 UV-I 0,0 C 56 % 95 % 0 % 1011,6 hPa 0,0 l/m 7,2 km/h (2 Bft) 0 min 0 min 27,7 km/h (4 Bft)
20.01.2012 02:44 11,9 C 3,6 C 0,0 UV-I 0,0 C 56 % 95 % 0 % 1011,6 hPa 0,0 l/m 8,0 km/h (2 Bft) 0 min 0 min 27,7 km/h (4 Bft)
20.01.2012 02:46 11,9 C 3,7 C 0,0 UV-I 0,0 C 56 % 95 % 0 % 1011,6 hPa 0,0 l/m 10,0 km/h (2 Bft) 0 min 0 min 25,3 km/h (4 Bft)
20.01.2012 02:48 11,9 C 3,9 C 0,0 UV-I 0,0 C 56 % 95 % 0 % 1011,6 hPa 0,0 l/m 10,8 km/h (2 Bft) 0 min 0 min 25,3 km/h (4 Bft)
20.01.2012 02:50 12,0 C 3,9 C 0,0 UV-I 0,0 C 56 % 95 % 0 % 1011,6 hPa 0,0 l/m 10,8 km/h (2 Bft) 0 min 0 min 21,3 km/h (4 Bft)
20.01.2012 02:52 11,9 C 3,9 C 0,0 UV-I 0,0 C 56 % 95 % 0 % 1011,6 hPa 0,0 l/m 12,0 km/h (2 Bft) 0 min 0 min 46,6 km/h (6 Bft)
20.01.2012 02:54 12,0 C 4,0 C 0,0 UV-I 0,0 C 56 % 95 % 0 % 1011,6 hPa 0,0 l/m 12,0 km/h (2 Bft) 0 min 0 min 24,5 km/h (4 Bft)
20.01.2012 02:56 12,0 C 4,0 C 0,0 UV-I 0,0 C 56 % 95 % 0 % 1011,6 hPa 0,0 l/m 12,4 km/h (3 Bft) 0 min 0 min 24,5 km/h (4 Bft)
20.01.2012 02:58 12,0 C 4,0 C 0,0 UV-I 0,0 C 56 % 95 % 0 % 1011,6 hPa 0,0 l/m 10,8 km/h (2 Bft) 0 min 0 min 24,5 km/h (4 Bft)
20.01.2012 03:00 12,0 C 4,1 C 0,0 UV-I 0,0 C 56 % 95 % 0 % 1011,6 hPa 0,0 l/m 12,0 km/h (2 Bft) 0 min 0 min 26,1 km/h (4 Bft)
20.01.2012 03:02 12,0 C 4,1 C 0,0 UV-I 0,0 C 56 % 95 % 0 % 1011,6 hPa 0,0 l/m 11,6 km/h (2 Bft) 0 min 0 min 26,1 km/h (4 Bft)
20.01.2012 03:04 12,0 C 4,1 C 0,0 UV-I 0,0 C 56 % 95 % 0 % 1011,8 hPa 0,0 l/m 11,6 km/h (2 Bft) 0 min 0 min 10,4 km/h (2 Bft)
20.01.2012 03:06 12,0 C 4,1 C 0,0 UV-I 0,0 C 56 % 95 % 0 % 1011,8 hPa 0,0 l/m 10,8 km/h (2 Bft) 0 min 0 min 16,9 km/h (3 Bft)
20.01.2012 03:08 12,0 C 4,2 C 0,0 UV-I 0,0 C 56 % 95 % 0 % 1011,8 hPa 0,0 l/m 10,8 km/h (2 Bft) 0 min 0 min 16,9 km/h (3 Bft)
20.01.2012 03:10 12,0 C 4,2 C 0,0 UV-I 0,0 C 57 % 95 % 0 % 1011,8 hPa 0,0 l/m 9,2 km/h (2 Bft) 0 min 0 min 14,9 km/h (3 Bft)
20.01.2012 03:12 12,0 C 4,3 C 0,0 UV-I 0,0 C 57 % 95 % 0 % 1011,8 hPa 0,0 l/m 8,8 km/h (2 Bft) 0 min 0 min 9,2 km/h (2 Bft)
20.01.2012 03:14 12,0 C 4,3 C 0,0 UV-I 0,0 C 57 % 95 % 0 % 1011,8 hPa 0,0 l/m 9,6 km/h (2 Bft) 0 min 0 min 13,7 km/h (3 Bft)
20.01.2012 03:16 12,0 C 4,3 C 0,0 UV-I 0,0 C 57 % 95 % 0 % 1011,8 hPa 0,0 l/m 9,2 km/h (2 Bft) 0 min 0 min 13,7 km/h (3 Bft)
20.01.2012 03:18 12,0 C 4,3 C 0,0 UV-I 0,0 C 57 % 95 % 0 % 1011,8 hPa 0,0 l/m 10,4 km/h (2 Bft) 0 min 0 min 13,7 km/h (3 Bft)
20.01.2012 03:20 12,0 C 4,3 C 0,0 UV-I 0,0 C 57 % 95 % 0 % 1011,8 hPa 0,0 l/m 10,0 km/h (2 Bft) 0 min 0 min 14,5 km/h (3 Bft)
20.01.2012 03:22 12,0 C 4,2 C 0,0 UV-I 0,0 C 57 % 95 % 0 % 1011,8 hPa 0,0 l/m 10,0 km/h (2 Bft) 0 min 0 min 14,5 km/h (3 Bft)
20.01.2012 03:24 12,0 C 4,2 C 0,0 UV-I 0,0 C 57 % 94 % 0 % 1011,8 hPa 0,0 l/m 10,4 km/h (2 Bft) 0 min 0 min 20,1 km/h (4 Bft)
20.01.2012 03:26 12,0 C 4,2 C 0,0 UV-I 0,0 C 57 % 94 % 0 % 1011,8 hPa 0,0 l/m 10,0 km/h (2 Bft) 0 min 0 min 20,1 km/h (4 Bft)
20.01.2012 03:28 12,0 C 4,3 C 0,0 UV-I 0,0 C 57 % 94 % 0 % 1011,8 hPa 0,0 l/m 10,8 km/h (2 Bft) 0 min 0 min 30,1 km/h (5 Bft)
20.01.2012 03:30 12,0 C 4,3 C 0,0 UV-I 0,0 C 57 % 94 % 0 % 1011,8 hPa 0,0 l/m 10,8 km/h (2 Bft) 0 min 0 min 30,1 km/h (5 Bft)
20.01.2012 03:32 12,0 C 4,3 C 0,0 UV-I 0,0 C 56 % 94 % 0 % 1011,8 hPa 0,0 l/m 11,2 km/h (2 Bft) 0 min 0 min 21,7 km/h (4 Bft)
20.01.2012 03:34 12,0 C 4,3 C 0,0 UV-I 0,0 C 56 % 94 % 0 % 1011,8 hPa 0,0 l/m 11,2 km/h (2 Bft) 0 min 0 min 28,9 km/h (5 Bft)
20.01.2012 03:36 12,0 C 4,3 C 0,0 UV-I 0,0 C 56 % 94 % 0 % 1011,8 hPa 0,0 l/m 10,8 km/h (2 Bft) 0 min 0 min 28,9 km/h (5 Bft)
20.01.2012 03:38 11,8 C 4,4 C 0,0 UV-I 0,0 C 56 % 94 % 0 % 1011,8 hPa 0,0 l/m 11,6 km/h (2 Bft) 0 min 0 min 12,4 km/h (3 Bft)
20.01.2012 03:40 11,8 C 4,4 C 0,0 UV-I 0,0 C 56 % 94 % 0 % 1011,8 hPa 0,0 l/m 10,8 km/h (2 Bft) 0 min 0 min 12,8 km/h (3 Bft)
20.01.2012 03:42 11,8 C 4,5 C 0,0 UV-I 0,0 C 56 % 94 % 0 % 1011,8 hPa 0,0 l/m 11,2 km/h (2 Bft) 0 min 0 min 15,7 km/h (3 Bft)
20.01.2012 03:44 11,9 C 4,4 C 0,0 UV-I 0,0 C 56 % 94 % 0 % 1011,6 hPa 0,0 l/m 11,2 km/h (2 Bft) 0 min 0 min 15,7 km/h (3 Bft)
20.01.2012 03:46 11,8 C 4,5 C 0,0 UV-I 0,0 C 56 % 94 % 0 % 1011,6 hPa 0,0 l/m 11,2 km/h (2 Bft) 0 min 0 min 11,6 km/h (2 Bft)
20.01.2012 03:48 11,9 C 4,5 C 0,0 UV-I 0,0 C 56 % 94 % 0 % 1011,6 hPa 0,0 l/m 10,8 km/h (2 Bft) 0 min 0 min 11,6 km/h (2 Bft)
20.01.2012 03:50 11,9 C 4,5 C 0,0 UV-I 0,0 C 56 % 94 % 0 % 1011,6 hPa 0,0 l/m 11,2 km/h (2 Bft) 0 min 0 min 27,7 km/h (4 Bft)
20.01.2012 03:52 11,9 C 4,6 C 0,0 UV-I 0,0 C 56 % 94 % 0 % 1011,6 hPa 0,0 l/m 11,2 km/h (2 Bft) 0 min 0 min 22,1 km/h (4 Bft)
20.01.2012 03:54 11,9 C 4,7 C 0,0 UV-I 0,0 C 56 % 93 % 0 % 1011,6 hPa 0,0 l/m 11,2 km/h (2 Bft) 0 min 0 min 22,1 km/h (4 Bft)
20.01.2012 03:56 11,9 C 4,7 C 0,0 UV-I 0,0 C 56 % 93 % 0 % 1011,6 hPa 0,0 l/m 11,2 km/h (2 Bft) 0 min 0 min 34,5 km/h (5 Bft)
20.01.2012 03:58 11,9 C 4,7 C 0,0 UV-I 0,0 C 56 % 93 % 0 % 1011,6 hPa 0,0 l/m 11,6 km/h (2 Bft) 0 min 0 min 34,5 km/h (5 Bft)
20.01.2012 04:00 11,9 C 4,7 C 0,0 UV-I 0,0 C 56 % 93 % 0 % 1011,6 hPa 0,0 l/m 11,6 km/h (2 Bft) 0 min 0 min 14,9 km/h (3 Bft)
20.01.2012 04:02 11,9 C 4,6 C 0,0 UV-I 0,0 C 56 % 93 % 0 % 1011,6 hPa 0,0 l/m 11,2 km/h (2 Bft) 0 min 0 min 14,1 km/h (3 Bft)
20.01.2012 04:04 11,9 C 4,6 C 0,0 UV-I 0,0 C 56 % 92 % 0 % 1011,6 hPa 0,0 l/m 11,2 km/h (2 Bft) 0 min 0 min 21,3 km/h (4 Bft)
20.01.2012 04:06 11,9 C 4,6 C 0,0 UV-I 0,0 C 56 % 92 % 0 % 1011,6 hPa 0,0 l/m 10,8 km/h (2 Bft) 0 min 0 min 21,3 km/h (4 Bft)
20.01.2012 04:08 11,9 C 4,7 C 0,0 UV-I 0,0 C 56 % 92 % 0 % 1011,6 hPa 0,0 l/m 11,2 km/h (2 Bft) 0 min 0 min 13,7 km/h (3 Bft)
20.01.2012 04:10 11,9 C 4,6 C 0,0 UV-I 0,0 C 56 % 92 % 0 % 1011,6 hPa 0,0 l/m 11,6 km/h (2 Bft) 0 min 0 min 12,0 km/h (2 Bft)
20.01.2012 04:12 11,8 C 4,6 C 0,0 UV-I 0,0 C 56 % 92 % 0 % 1011,6 hPa 0,0 l/m 11,6 km/h (2 Bft) 0 min 0 min 10,0 km/h (2 Bft)
20.01.2012 04:14 11,9 C 4,7 C 0,0 UV-I 0,0 C 56 % 92 % 0 % 1011,6 hPa 0,0 l/m 12,0 km/h (2 Bft) 0 min 0 min 9,6 km/h (2 Bft)
20.01.2012 04:16 11,9 C 4,6 C 0,0 UV-I 0,0 C 56 % 92 % 0 % 1011,6 hPa 0,0 l/m 12,0 km/h (2 Bft) 0 min 0 min 12,0 km/h (2 Bft)
20.01.2012 04:18 11,8 C 4,6 C 0,0 UV-I 0,0 C 56 % 92 % 0 % 1011,6 hPa 0,0 l/m 11,6 km/h (2 Bft) 0 min 0 min 18,5 km/h (3 Bft)
20.01.2012 04:20 11,9 C 4,7 C 0,0 UV-I 0,0 C 56 % 92 % 0 % 1011,6 hPa 0,0 l/m 12,0 km/h (2 Bft) 0 min 0 min 18,5 km/h (3 Bft)
20.01.2012 04:22 11,9 C 4,6 C 0,0 UV-I 0,0 C 56 % 92 % 0 % 1011,6 hPa 0,0 l/m 12,0 km/h (2 Bft) 0 min 0 min 15,3 km/h (3 Bft)
20.01.2012 04:24 11,9 C 4,7 C 0,0 UV-I 0,0 C 55 % 92 % 0 % 1011,8 hPa 0,0 l/m 12,4 km/h (3 Bft) 0 min 0 min 26,1 km/h (4 Bft)
20.01.2012 04:26 11,9 C 4,7 C 0,0 UV-I 0,0 C 56 % 91 % 0 % 1011,8 hPa 0,0 l/m 12,8 km/h (3 Bft) 0 min 0 min 26,1 km/h (4 Bft)
20.01.2012 04:28 11,9 C 4,7 C 0,0 UV-I 0,0 C 55 % 92 % 0 % 1011,8 hPa 0,0 l/m 12,8 km/h (3 Bft) 0 min 0 min 26,1 km/h (4 Bft)
20.01.2012 04:30 11,9 C 4,7 C 0,0 UV-I 0,0 C 55 % 91 % 0 % 1011,8 hPa 0,0 l/m 12,8 km/h (3 Bft) 0 min 0 min 24,9 km/h (4 Bft)
20.01.2012 04:32 11,9 C 4,7 C 0,0 UV-I 0,0 C 55 % 91 % 0 % 1011,8 hPa 0,0 l/m 13,3 km/h (3 Bft) 0 min 0 min 24,9 km/h (4 Bft)
20.01.2012 04:34 11,9 C 4,7 C 0,0 UV-I 0,0 C 55 % 91 % 0 % 1011,8 hPa 0,0 l/m 14,1 km/h (3 Bft) 0 min 0 min 25,7 km/h (4 Bft)
20.01.2012 04:36 11,9 C 4,7 C 0,0 UV-I 0,0 C 55 % 91 % 0 % 1011,8 hPa 0,0 l/m 14,1 km/h (3 Bft) 0 min 0 min 25,7 km/h (4 Bft)
20.01.2012 04:38 11,9 C 4,7 C 0,0 UV-I 0,0 C 55 % 91 % 0 % 1011,8 hPa 0,0 l/m 14,1 km/h (3 Bft) 0 min 0 min 21,7 km/h (4 Bft)
20.01.2012 04:40 11,9 C 4,7 C 0,0 UV-I 0,0 C 55 % 91 % 0 % 1011,8 hPa 0,0 l/m 13,7 km/h (3 Bft) 0 min 0 min 21,7 km/h (4 Bft)
20.01.2012 04:42 11,9 C 4,7 C 0,0 UV-I 0,0 C 55 % 91 % 0 % 1011,8 hPa 0,0 l/m 12,4 km/h (3 Bft) 0 min 0 min 12,8 km/h (3 Bft)
20.01.2012 04:44 11,9 C 4,7 C 0,0 UV-I 0,0 C 55 % 91 % 0 % 1011,9 hPa 0,0 l/m 10,4 km/h (2 Bft) 0 min 0 min 12,8 km/h (3 Bft)
20.01.2012 04:46 11,9 C 4,6 C 0,0 UV-I 0,0 C 55 % 91 % 0 % 1011,9 hPa 0,0 l/m 10,8 km/h (2 Bft) 0 min 0 min 27,7 km/h (4 Bft)
20.01.2012 04:48 11,8 C 4,5 C 0,0 UV-I 0,0 C 55 % 91 % 0 % 1011,9 hPa 0,0 l/m 10,4 km/h (2 Bft) 0 min 0 min 27,7 km/h (4 Bft)
20.01.2012 04:50 11,9 C 4,5 C 0,0 UV-I 0,0 C 55 % 90 % 0 % 1011,9 hPa 0,0 l/m 10,0 km/h (2 Bft) 0 min 0 min 12,4 km/h (3 Bft)
20.01.2012 04:52 11,9 C 4,5 C 0,0 UV-I 0,0 C 55 % 90 % 0 % 1011,9 hPa 0,0 l/m 10,4 km/h (2 Bft) 0 min 0 min 21,7 km/h (4 Bft)
20.01.2012 04:54 11,8 C 4,5 C 0,0 UV-I 0,0 C 55 % 90 % 0 % 1011,9 hPa 0,0 l/m 11,2 km/h (2 Bft) 0 min 0 min 32,5 km/h (5 Bft)
20.01.2012 04:56 11,8 C 4,5 C 0,0 UV-I 0,0 C 55 % 90 % 0 % 1011,9 hPa 0,0 l/m 12,4 km/h (3 Bft) 0 min 0 min 32,5 km/h (5 Bft)
20.01.2012 04:58 11,8 C 4,5 C 0,0 UV-I 0,0 C 55 % 90 % 0 % 1011,9 hPa 0,0 l/m 12,4 km/h (3 Bft) 0 min 0 min 20,9 km/h (4 Bft)
20.01.2012 05:00 11,8 C 4,5 C 0,0 UV-I 0,0 C 55 % 90 % 0 % 1011,9 hPa 0,0 l/m 12,4 km/h (3 Bft) 0 min 0 min 20,9 km/h (4 Bft)
20.01.2012 05:02 11,9 C 4,5 C 0,0 UV-I 0,0 C 55 % 90 % 0 % 1011,9 hPa 0,0 l/m 12,0 km/h (2 Bft) 0 min 0 min 20,1 km/h (4 Bft)
20.01.2012 05:04 11,8 C 4,5 C 0,0 UV-I 0,0 C 55 % 90 % 0 % 1011,8 hPa 0,0 l/m 11,6 km/h (2 Bft) 0 min 0 min 23,7 km/h (4 Bft)
20.01.2012 05:06 11,8 C 4,5 C 0,0 UV-I 0,0 C 55 % 90 % 0 % 1011,8 hPa 0,0 l/m 11,2 km/h (2 Bft) 0 min 0 min 23,7 km/h (4 Bft)
20.01.2012 05:08 11,8 C 4,5 C 0,0 UV-I 0,0 C 54 % 90 % 0 % 1011,8 hPa 0,0 l/m 10,4 km/h (2 Bft) 0 min 0 min 13,7 km/h (3 Bft)
20.01.2012 05:10 11,9 C 4,5 C 0,0 UV-I 0,0 C 54 % 90 % 0 % 1011,8 hPa 0,0 l/m 10,0 km/h (2 Bft) 0 min 0 min 19,3 km/h (3 Bft)
20.01.2012 05:12 11,9 C 4,5 C 0,0 UV-I 0,0 C 54 % 90 % 0 % 1011,8 hPa 0,0 l/m 10,4 km/h (2 Bft) 0 min 0 min 20,5 km/h (4 Bft)
20.01.2012 05:14 11,8 C 4,4 C 0,0 UV-I 0,0 C 54 % 90 % 0 % 1011,8 hPa 0,0 l/m 11,2 km/h (2 Bft) 0 min 0 min 20,5 km/h (4 Bft)
20.01.2012 05:16 11,9 C 4,4 C 0,0 UV-I 0,0 C 54 % 90 % 0 % 1011,8 hPa 0,0 l/m 12,4 km/h (3 Bft) 0 min 0 min 42,2 km/h (6 Bft)
20.01.2012 05:18 11,9 C 4,5 C 0,0 UV-I 0,0 C 54 % 90 % 0 % 1011,8 hPa 0,0 l/m 12,8 km/h (3 Bft) 0 min 0 min 42,2 km/h (6 Bft)
20.01.2012 05:20 11,9 C 4,5 C 0,0 UV-I 0,0 C 54 % 90 % 0 % 1011,8 hPa 0,0 l/m 12,4 km/h (3 Bft) 0 min 0 min 13,7 km/h (3 Bft)
20.01.2012 05:22 11,8 C 4,5 C 0,0 UV-I 0,0 C 54 % 90 % 0 % 1011,8 hPa 0,0 l/m 13,7 km/h (3 Bft) 0 min 0 min 31,3 km/h (5 Bft)
20.01.2012 05:24 11,8 C 4,4 C 0,0 UV-I 0,0 C 54 % 89 % 0 % 1012,1 hPa 0,0 l/m 13,7 km/h (3 Bft) 0 min 0 min 31,3 km/h (5 Bft)
20.01.2012 05:26 11,8 C 4,4 C 0,0 UV-I 0,0 C 54 % 89 % 0 % 1012,1 hPa 0,0 l/m 14,1 km/h (3 Bft) 0 min 0 min 30,5 km/h (5 Bft)
20.01.2012 05:28 11,8 C 4,4 C 0,0 UV-I 0,0 C 54 % 89 % 0 % 1012,1 hPa 0,0 l/m 14,1 km/h (3 Bft) 0 min 0 min 30,5 km/h (5 Bft)
20.01.2012 05:30 11,8 C 4,4 C 0,0 UV-I 0,0 C 54 % 89 % 0 % 1012,1 hPa 0,0 l/m 13,3 km/h (3 Bft) 0 min 0 min 19,3 km/h (3 Bft)
20.01.2012 05:32 11,8 C 4,4 C 0,0 UV-I 0,0 C 54 % 89 % 0 % 1012,1 hPa 0,0 l/m 13,7 km/h (3 Bft) 0 min 0 min 19,3 km/h (3 Bft)
20.01.2012 05:34 11,8 C 4,4 C 0,0 UV-I 0,0 C 54 % 89 % 0 % 1012,1 hPa 0,0 l/m 13,7 km/h (3 Bft) 0 min 0 min 15,3 km/h (3 Bft)
20.01.2012 05:36 11,8 C 4,4 C 0,0 UV-I 0,0 C 54 % 89 % 0 % 1012,1 hPa 0,0 l/m 13,3 km/h (3 Bft) 0 min 0 min 19,7 km/h (3 Bft)
20.01.2012 05:38 11,8 C 4,4 C 0,0 UV-I 0,0 C 54 % 89 % 0 % 1012,1 hPa 0,0 l/m 13,3 km/h (3 Bft) 0 min 0 min 19,7 km/h (3 Bft)
20.01.2012 05:40 11,8 C 4,4 C 0,0 UV-I 0,0 C 54 % 89 % 0 % 1012,1 hPa 0,0 l/m 12,8 km/h (3 Bft) 0 min 0 min 22,1 km/h (4 Bft)
20.01.2012 05:42 11,6 C 4,4 C 0,0 UV-I 0,0 C 54 % 88 % 0 % 1012,1 hPa 0,0 l/m 12,0 km/h (2 Bft) 0 min 0 min 22,1 km/h (4 Bft)
20.01.2012 05:44 11,6 C 4,4 C 0,0 UV-I 0,0 C 54 % 88 % 0 % 1012,0 hPa 0,0 l/m 12,0 km/h (2 Bft) 0 min 0 min 33,3 km/h (5 Bft)
20.01.2012 05:46 11,6 C 4,4 C 0,0 UV-I 0,0 C 53 % 88 % 0 % 1012,0 hPa 0,0 l/m 10,4 km/h (2 Bft) 0 min 0 min 33,3 km/h (5 Bft)
20.01.2012 05:48 11,6 C 4,5 C 0,0 UV-I 0,0 C 54 % 88 % 0 % 1012,0 hPa 0,0 l/m 10,0 km/h (2 Bft) 0 min 0 min 20,5 km/h (4 Bft)
20.01.2012 05:50 11,6 C 4,5 C 0,0 UV-I 0,0 C 53 % 88 % 0 % 1012,0 hPa 0,0 l/m 10,0 km/h (2 Bft) 0 min 0 min 20,5 km/h (4 Bft)
20.01.2012 05:52 11,6 C 4,4 C 0,0 UV-I 0,0 C 54 % 88 % 0 % 1012,0 hPa 0,0 l/m 10,4 km/h (2 Bft) 0 min 0 min 16,9 km/h (3 Bft)
20.01.2012 05:54 11,6 C 4,4 C 0,0 UV-I 0,0 C 53 % 88 % 0 % 1012,0 hPa 0,0 l/m 11,2 km/h (2 Bft) 0 min 0 min 21,7 km/h (4 Bft)
20.01.2012 05:56 11,7 C 4,4 C 0,0 UV-I 0,0 C 53 % 88 % 0 % 1012,0 hPa 0,0 l/m 11,2 km/h (2 Bft) 0 min 0 min 22,9 km/h (4 Bft)
20.01.2012 05:58 11,6 C 4,4 C 0,0 UV-I 0,0 C 53 % 88 % 0 % 1012,0 hPa 0,0 l/m 11,6 km/h (2 Bft) 0 min 0 min 23,7 km/h (4 Bft)
20.01.2012 06:00 11,7 C 4,4 C 0,0 UV-I 0,0 C 53 % 88 % 0 % 1012,0 hPa 0,0 l/m 11,6 km/h (2 Bft) 0 min 0 min 23,7 km/h (4 Bft)
20.01.2012 06:02 11,6 C 4,4 C 0,0 UV-I 0,0 C 53 % 88 % 0 % 1012,0 hPa 0,0 l/m 11,6 km/h (2 Bft) 0 min 0 min 29,3 km/h (5 Bft)
20.01.2012 06:04 11,6 C 4,4 C 0,0 UV-I 0,0 C 53 % 88 % 0 % 1012,1 hPa 0,0 l/m 11,2 km/h (2 Bft) 0 min 0 min 8,0 km/h (2 Bft)
20.01.2012 06:06 11,6 C 4,5 C 0,0 UV-I 0,0 C 53 % 88 % 0 % 1012,1 hPa 0,0 l/m 10,4 km/h (2 Bft) 0 min 0 min 9,6 km/h (2 Bft)
20.01.2012 06:08 11,7 C 4,4 C 0,0 UV-I 0,0 C 53 % 88 % 0 % 1012,1 hPa 0,0 l/m 10,8 km/h (2 Bft) 0 min 0 min 17,7 km/h (3 Bft)
20.01.2012 06:10 11,7 C 4,5 C 0,0 UV-I 0,0 C 53 % 88 % 0 % 1012,1 hPa 0,0 l/m 10,0 km/h (2 Bft) 0 min 0 min 17,7 km/h (3 Bft)
20.01.2012 06:12 11,6 C 4,4 C 0,0 UV-I 0,0 C 53 % 88 % 0 % 1012,1 hPa 0,0 l/m 11,6 km/h (2 Bft) 0 min 0 min 25,3 km/h (4 Bft)
20.01.2012 06:14 11,6 C 4,4 C 0,0 UV-I 0,0 C 53 % 88 % 0 % 1012,1 hPa 0,0 l/m 11,2 km/h (2 Bft) 0 min 0 min 34,5 km/h (5 Bft)
20.01.2012 06:16 11,7 C 4,4 C 0,0 UV-I 0,0 C 53 % 88 % 0 % 1012,1 hPa 0,0 l/m 12,0 km/h (2 Bft) 0 min 0 min 34,5 km/h (5 Bft)
20.01.2012 06:18 11,6 C 4,5 C 0,0 UV-I 0,0 C 53 % 88 % 0 % 1012,1 hPa 0,0 l/m 12,8 km/h (3 Bft) 0 min 0 min 41,8 km/h (6 Bft)
20.01.2012 06:20 11,6 C 4,5 C 0,0 UV-I 0,0 C 53 % 88 % 0 % 1012,1 hPa 0,0 l/m 12,4 km/h (3 Bft) 0 min 0 min 41,8 km/h (6 Bft)
20.01.2012 06:22 11,6 C 4,4 C 0,0 UV-I 0,0 C 53 % 88 % 0 % 1012,1 hPa 0,0 l/m 12,0 km/h (2 Bft) 0 min 0 min 16,5 km/h (3 Bft)
20.01.2012 06:24 11,6 C 4,4 C 0,0 UV-I 0,0 C 53 % 88 % 0 % 1012,1 hPa 0,0 l/m 11,6 km/h (2 Bft) 0 min 0 min 14,5 km/h (3 Bft)
20.01.2012 06:26 11,6 C 4,4 C 0,0 UV-I 0,0 C 53 % 88 % 0 % 1012,1 hPa 0,0 l/m 10,0 km/h (2 Bft) 0 min 0 min 11,6 km/h (2 Bft)
20.01.2012 06:28 11,6 C 4,4 C 0,0 UV-I 0,0 C 53 % 88 % 0 % 1012,1 hPa 0,0 l/m 10,0 km/h (2 Bft) 0 min 0 min 6,4 km/h (2 Bft)
20.01.2012 06:30 11,6 C 4,3 C 0,0 UV-I 0,0 C 53 % 88 % 0 % 1012,1 hPa 0,0 l/m 9,2 km/h (2 Bft) 0 min 0 min 30,5 km/h (5 Bft)
20.01.2012 06:32 11,6 C 4,3 C 0,0 UV-I 0,0 C 53 % 87 % 0 % 1012,1 hPa 0,0 l/m 9,6 km/h (2 Bft) 0 min 0 min 30,5 km/h (5 Bft)
20.01.2012 06:34 11,6 C 4,3 C 0,0 UV-I 0,0 C 53 % 87 % 0 % 1012,1 hPa 0,0 l/m 10,0 km/h (2 Bft) 0 min 0 min 11,2 km/h (2 Bft)
20.01.2012 06:36 11,6 C 4,4 C 0,0 UV-I 0,0 C 53 % 87 % 0 % 1012,1 hPa 0,0 l/m 9,2 km/h (2 Bft) 0 min 0 min 11,6 km/h (2 Bft)
20.01.2012 06:38 11,6 C 4,4 C 0,0 UV-I 0,0 C 53 % 87 % 0 % 1012,1 hPa 0,0 l/m 10,4 km/h (2 Bft) 0 min 0 min 21,3 km/h (4 Bft)
20.01.2012 06:40 11,6 C 4,3 C 0,0 UV-I 0,0 C 53 % 87 % 0 % 1012,1 hPa 0,0 l/m 11,2 km/h (2 Bft) 0 min 0 min 21,3 km/h (4 Bft)
20.01.2012 06:42 11,6 C 4,4 C 0,0 UV-I 0,0 C 53 % 87 % 0 % 1012,1 hPa 0,0 l/m 10,4 km/h (2 Bft) 0 min 0 min 11,6 km/h (2 Bft)
20.01.2012 06:44 11,6 C 4,4 C 0,0 UV-I 0,0 C 53 % 87 % 0 % 1012,1 hPa 0,0 l/m 10,4 km/h (2 Bft) 0 min 0 min 29,3 km/h (5 Bft)
20.01.2012 06:46 11,6 C 4,5 C 0,0 UV-I 0,0 C 53 % 87 % 0 % 1012,1 hPa 0,0 l/m 10,4 km/h (2 Bft) 0 min 0 min 29,3 km/h (5 Bft)
20.01.2012 06:48 11,6 C 4,4 C 0,0 UV-I 0,0 C 53 % 87 % 0 % 1012,1 hPa 0,0 l/m 10,0 km/h (2 Bft) 0 min 0 min 12,0 km/h (2 Bft)
20.01.2012 06:50 11,6 C 4,4 C 0,0 UV-I 0,0 C 53 % 87 % 0 % 1012,1 hPa 0,0 l/m 9,6 km/h (2 Bft) 0 min 0 min 10,8 km/h (2 Bft)
20.01.2012 06:52 11,6 C 4,4 C 0,0 UV-I 0,0 C 53 % 87 % 0 % 1012,1 hPa 0,0 l/m 10,0 km/h (2 Bft) 0 min 0 min 16,1 km/h (3 Bft)
20.01.2012 06:54 11,6 C 4,4 C 0,0 UV-I 0,0 C 53 % 87 % 0 % 1012,1 hPa 0,0 l/m 10,4 km/h (2 Bft) 0 min 0 min 16,1 km/h (3 Bft)
20.01.2012 06:56 11,6 C 4,4 C 0,0 UV-I 0,0 C 53 % 87 % 0 % 1012,1 hPa 0,0 l/m 9,6 km/h (2 Bft) 0 min 0 min 11,6 km/h (2 Bft)
20.01.2012 06:58 11,6 C 4,4 C 0,0 UV-I 0,0 C 53 % 87 % 0 % 1012,1 hPa 0,0 l/m 9,6 km/h (2 Bft) 0 min 0 min 14,9 km/h (3 Bft)
20.01.2012 07:00 11,6 C 4,4 C 0,0 UV-I 0,0 C 53 % 87 % 0 % 1012,1 hPa 0,0 l/m 10,0 km/h (2 Bft) 0 min 0 min 14,9 km/h (3 Bft)
20.01.2012 07:02 11,6 C 4,4 C 0,0 UV-I 0,0 C 53 % 87 % 0 % 1012,1 hPa 0,0 l/m 9,6 km/h (2 Bft) 0 min 0 min 9,6 km/h (2 Bft)
20.01.2012 07:04 11,6 C 4,4 C 0,0 UV-I 0,0 C 53 % 87 % 0 % 1012,1 hPa 0,0 l/m 8,8 km/h (2 Bft) 0 min 0 min 17,3 km/h (3 Bft)
20.01.2012 07:06 11,6 C 4,5 C 0,0 UV-I 0,0 C 53 % 87 % 0 % 1012,1 hPa 0,0 l/m 8,8 km/h (2 Bft) 0 min 0 min 17,3 km/h (3 Bft)
20.01.2012 07:08 11,6 C 4,5 C 0,0 UV-I 0,0 C 53 % 87 % 0 % 1012,1 hPa 0,0 l/m 8,8 km/h (2 Bft) 0 min 0 min 12,4 km/h (3 Bft)
20.01.2012 07:10 11,6 C 4,4 C 0,0 UV-I 0,0 C 53 % 87 % 0 % 1012,1 hPa 0,0 l/m 8,8 km/h (2 Bft) 0 min 0 min 24,5 km/h (4 Bft)
20.01.2012 07:12 11,6 C 4,4 C 0,0 UV-I 0,0 C 53 % 87 % 0 % 1012,1 hPa 0,0 l/m 9,6 km/h (2 Bft) 0 min 0 min 24,5 km/h (4 Bft)
20.01.2012 07:14 11,6 C 4,4 C 0,0 UV-I 0,0 C 53 % 87 % 0 % 1012,1 hPa 0,0 l/m 10,4 km/h (2 Bft) 0 min 0 min 22,9 km/h (4 Bft)
20.01.2012 07:16 11,6 C 4,5 C 0,0 UV-I 0,0 C 53 % 87 % 0 % 1012,1 hPa 0,0 l/m 10,4 km/h (2 Bft) 0 min 0 min 22,9 km/h (4 Bft)
20.01.2012 07:18 11,6 C 4,5 C 0,0 UV-I 0,0 C 53 % 87 % 0 % 1012,1 hPa 0,0 l/m 10,4 km/h (2 Bft) 0 min 0 min 17,3 km/h (3 Bft)
20.01.2012 07:20 11,6 C 4,5 C 0,0 UV-I 0,0 C 53 % 87 % 0 % 1012,1 hPa 0,0 l/m 12,0 km/h (2 Bft) 0 min 0 min 20,1 km/h (4 Bft)
20.01.2012 07:22 11,6 C 4,5 C 0,0 UV-I 0,0 C 53 % 87 % 0 % 1012,1 hPa 0,0 l/m 11,6 km/h (2 Bft) 0 min 0 min 20,1 km/h (4 Bft)
20.01.2012 07:24 11,6 C 4,6 C 0,0 UV-I 0,0 C 52 % 87 % 0 % 1012,1 hPa 0,0 l/m 11,6 km/h (2 Bft) 0 min 0 min 12,0 km/h (2 Bft)
20.01.2012 07:26 11,6 C 4,6 C 0,0 UV-I 0,0 C 52 % 87 % 0 % 1012,1 hPa 0,0 l/m 11,6 km/h (2 Bft) 0 min 0 min 16,1 km/h (3 Bft)
20.01.2012 07:28 11,6 C 4,7 C 0,0 UV-I 0,0 C 52 % 87 % 0 % 1012,1 hPa 0,0 l/m 11,6 km/h (2 Bft) 0 min 0 min 25,3 km/h (4 Bft)
20.01.2012 07:30 11,6 C 4,7 C 0,0 UV-I 0,0 C 53 % 86 % 0 % 1012,1 hPa 0,0 l/m 11,2 km/h (2 Bft) 0 min 0 min 25,3 km/h (4 Bft)
20.01.2012 07:32 11,6 C 4,7 C 0,0 UV-I 0,0 C 53 % 86 % 0 % 1012,1 hPa 0,0 l/m 10,4 km/h (2 Bft) 0 min 0 min 17,7 km/h (3 Bft)
20.01.2012 07:34 11,6 C 4,7 C 0,0 UV-I 0,0 C 53 % 86 % 0 % 1012,1 hPa 0,0 l/m 10,4 km/h (2 Bft) 0 min 0 min 22,1 km/h (4 Bft)
20.01.2012 07:36 11,6 C 4,7 C 0,0 UV-I 0,0 C 52 % 86 % 0 % 1012,1 hPa 0,0 l/m 10,8 km/h (2 Bft) 0 min 0 min 23,3 km/h (4 Bft)
20.01.2012 07:38 11,6 C 4,6 C 0,0 UV-I 0,0 C 53 % 86 % 0 % 1012,1 hPa 0,0 l/m 10,8 km/h (2 Bft) 0 min 0 min 23,3 km/h (4 Bft)
20.01.2012 07:40 11,6 C 4,6 C 0,0 UV-I 0,0 C 53 % 86 % 0 % 1012,1 hPa 0,0 l/m 10,8 km/h (2 Bft) 0 min 0 min 16,9 km/h (3 Bft)
20.01.2012 07:42 11,6 C 4,7 C 0,0 UV-I 0,0 C 52 % 86 % 0 % 1012,1 hPa 0,0 l/m 10,8 km/h (2 Bft) 0 min 0 min 16,9 km/h (3 Bft)
20.01.2012 07:44 11,6 C 4,6 C 0,0 UV-I 0,0 C 53 % 86 % 0 % 1013,2 hPa 0,0 l/m 10,8 km/h (2 Bft) 0 min 0 min 13,3 km/h (3 Bft)
20.01.2012 07:46 11,6 C 4,7 C 0,0 UV-I 0,0 C 53 % 86 % 0 % 1013,2 hPa 0,0 l/m 11,2 km/h (2 Bft) 0 min 0 min 16,5 km/h (3 Bft)
20.01.2012 07:48 11,6 C 4,7 C 0,0 UV-I 0,0 C 53 % 86 % 0 % 1013,2 hPa 0,0 l/m 10,4 km/h (2 Bft) 0 min 0 min 16,5 km/h (3 Bft)
20.01.2012 07:50 11,6 C 4,7 C 0,0 UV-I 0,0 C 53 % 86 % 0 % 1013,2 hPa 0,0 l/m 10,0 km/h (2 Bft) 0 min 0 min 12,0 km/h (2 Bft)
20.01.2012 07:52 11,4 C 4,7 C 0,0 UV-I 0,0 C 53 % 87 % 0 % 1013,2 hPa 0,0 l/m 10,4 km/h (2 Bft) 0 min 0 min 12,0 km/h (2 Bft)
20.01.2012 07:54 11,4 C 4,7 C 0,0 UV-I 0,0 C 53 % 87 % 0 % 1013,2 hPa 0,0 l/m 12,0 km/h (2 Bft) 0 min 0 min 22,1 km/h (4 Bft)
20.01.2012 07:56 11,4 C 4,6 C 0,0 UV-I 0,0 C 53 % 87 % 0 % 1013,2 hPa 0,0 l/m 12,0 km/h (2 Bft) 0 min 0 min 22,1 km/h (4 Bft)
20.01.2012 07:58 11,4 C 4,7 C 0,0 UV-I 0,0 C 53 % 87 % 0 % 1013,2 hPa 0,0 l/m 11,6 km/h (2 Bft) 0 min 0 min 15,7 km/h (3 Bft)
20.01.2012 08:00 11,4 C 4,7 C 0,0 UV-I 0,0 C 53 % 87 % 0 % 1013,2 hPa 0,0 l/m 12,0 km/h (2 Bft) 0 min 0 min 15,7 km/h (3 Bft)
20.01.2012 08:02 11,4 C 4,7 C 0,0 UV-I 0,0 C 53 % 87 % 0 % 1013,2 hPa 0,0 l/m 11,6 km/h (2 Bft) 0 min 0 min 10,8 km/h (2 Bft)
20.01.2012 08:04 11,5 C 4,7 C 0,0 UV-I 0,0 C 53 % 87 % 0 % 1013,2 hPa 0,0 l/m 10,0 km/h (2 Bft) 0 min 0 min 9,2 km/h (2 Bft)
20.01.2012 08:06 11,5 C 4,7 C 0,0 UV-I 0,0 C 53 % 87 % 0 % 1013,2 hPa 0,0 l/m 9,2 km/h (2 Bft) 0 min 0 min 12,0 km/h (2 Bft)
20.01.2012 08:08 11,5 C 4,6 C 0,0 UV-I 0,0 C 53 % 87 % 0 % 1013,2 hPa 0,0 l/m 10,4 km/h (2 Bft) 0 min 0 min 24,1 km/h (4 Bft)
20.01.2012 08:10 11,5 C 4,6 C 0,0 UV-I 0,0 C 53 % 87 % 0 % 1013,2 hPa 0,0 l/m 9,6 km/h (2 Bft) 0 min 0 min 24,1 km/h (4 Bft)
20.01.2012 08:12 11,5 C 4,6 C 0,0 UV-I 0,0 C 53 % 87 % 0 % 1013,2 hPa 0,0 l/m 9,6 km/h (2 Bft) 0 min 0 min 12,4 km/h (3 Bft)
20.01.2012 08:14 11,5 C 4,6 C 0,0 UV-I 0,0 C 53 % 87 % 0 % 1013,2 hPa 0,0 l/m 10,0 km/h (2 Bft) 0 min 0 min 12,4 km/h (3 Bft)
20.01.2012 08:16 11,5 C 4,6 C 0,0 UV-I 0,0 C 53 % 87 % 0 % 1013,2 hPa 0,0 l/m 10,4 km/h (2 Bft) 0 min 0 min 16,5 km/h (3 Bft)
20.01.2012 08:18 11,5 C 4,6 C 0,0 UV-I 0,0 C 53 % 87 % 0 % 1013,2 hPa 0,0 l/m 10,4 km/h (2 Bft) 0 min 0 min 20,5 km/h (4 Bft)
20.01.2012 08:20 11,5 C 4,7 C 0,0 UV-I 0,0 C 53 % 87 % 0 % 1013,2 hPa 0,0 l/m 9,6 km/h (2 Bft) 0 min 0 min 20,5 km/h (4 Bft)
20.01.2012 08:22 11,5 C 4,6 C 0,0 UV-I 0,0 C 53 % 87 % 0 % 1013,2 hPa 0,0 l/m 10,4 km/h (2 Bft) 0 min 0 min 26,9 km/h (4 Bft)
20.01.2012 08:24 11,5 C 4,6 C 0,0 UV-I 0,0 C 53 % 87 % 0 % 1013,2 hPa 0,0 l/m 10,4 km/h (2 Bft) 0 min 0 min 26,9 km/h (4 Bft)
20.01.2012 08:26 11,5 C 4,7 C 0,0 UV-I 0,0 C 53 % 87 % 0 % 1013,2 hPa 0,0 l/m 10,8 km/h (2 Bft) 0 min 0 min 10,4 km/h (2 Bft)
20.01.2012 08:28 11,5 C 4,6 C 0,0 UV-I 0,0 C 53 % 87 % 0 % 1013,2 hPa 0,0 l/m 10,4 km/h (2 Bft) 0 min 0 min 22,9 km/h (4 Bft)
20.01.2012 08:30 11,5 C 4,7 C 0,0 UV-I 0,0 C 53 % 87 % 0 % 1013,2 hPa 0,0 l/m 10,4 km/h (2 Bft) 0 min 0 min 22,9 km/h (4 Bft)
20.01.2012 08:32 11,5 C 4,6 C 0,0 UV-I 0,0 C 53 % 87 % 0 % 1013,2 hPa 0,0 l/m 10,4 km/h (2 Bft) 0 min 0 min 11,6 km/h (2 Bft)
20.01.2012 08:34 11,5 C 4,7 C 0,0 UV-I 0,0 C 53 % 87 % 0 % 1013,2 hPa 0,0 l/m 9,2 km/h (2 Bft) 0 min 0 min 15,3 km/h (3 Bft)
20.01.2012 08:36 11,5 C 4,7 C 0,0 UV-I 0,0 C 53 % 87 % 0 % 1013,2 hPa 0,0 l/m 9,6 km/h (2 Bft) 0 min 0 min 16,5 km/h (3 Bft)
20.01.2012 08:38 11,3 C 4,7 C 0,0 UV-I 0,0 C 53 % 87 % 0 % 1013,2 hPa 0,0 l/m 10,4 km/h (2 Bft) 0 min 0 min 16,5 km/h (3 Bft)
20.01.2012 08:40 11,3 C 4,7 C 0,0 UV-I 0,0 C 53 % 87 % 0 % 1013,2 hPa 0,0 l/m 9,6 km/h (2 Bft) 0 min 0 min 12,8 km/h (3 Bft)
20.01.2012 08:42 11,3 C 4,7 C 0,0 UV-I 0,0 C 53 % 87 % 0 % 1013,2 hPa 0,0 l/m 9,2 km/h (2 Bft) 0 min 0 min 22,9 km/h (4 Bft)
20.01.2012 08:44 11,4 C 4,7 C 0,0 UV-I 0,0 C 53 % 87 % 0 % 1013,7 hPa 0,0 l/m 10,4 km/h (2 Bft) 0 min 0 min 22,9 km/h (4 Bft)
20.01.2012 08:46 11,4 C 4,7 C 0,0 UV-I 0,0 C 53 % 87 % 0 % 1013,7 hPa 0,0 l/m 10,4 km/h (2 Bft) 0 min 0 min 18,5 km/h (3 Bft)
20.01.2012 08:48 11,4 C 4,7 C 0,0 UV-I 0,0 C 53 % 87 % 0 % 1013,7 hPa 0,0 l/m 9,6 km/h (2 Bft) 0 min 0 min 16,1 km/h (3 Bft)
20.01.2012 08:50 11,4 C 4,7 C 0,0 UV-I 0,0 C 54 % 87 % 0 % 1013,7 hPa 0,0 l/m 9,6 km/h (2 Bft) 0 min 0 min 13,7 km/h (3 Bft)
20.01.2012 08:52 11,4 C 4,7 C 0,0 UV-I 0,0 C 54 % 87 % 0 % 1013,7 hPa 0,0 l/m 10,4 km/h (2 Bft) 0 min 0 min 12,8 km/h (3 Bft)
20.01.2012 08:54 11,4 C 4,7 C 0,0 UV-I 0,0 C 54 % 87 % 0 % 1013,7 hPa 0,0 l/m 9,6 km/h (2 Bft) 0 min 0 min 12,8 km/h (3 Bft)
20.01.2012 08:56 11,4 C 4,7 C 0,0 UV-I 0,0 C 54 % 87 % 0 % 1013,7 hPa 0,0 l/m 9,2 km/h (2 Bft) 0 min 0 min 9,2 km/h (2 Bft)
20.01.2012 08:58 11,3 C 4,7 C 0,0 UV-I 0,0 C 54 % 87 % 0 % 1013,7 hPa 0,0 l/m 8,4 km/h (2 Bft) 0 min 0 min 21,7 km/h (4 Bft)
20.01.2012 09:00 11,4 C 4,7 C 0,0 UV-I 0,0 C 54 % 87 % 0 % 1013,7 hPa 0,0 l/m 8,0 km/h (2 Bft) 0 min 0 min 21,7 km/h (4 Bft)
20.01.2012 09:02 11,3 C 4,7 C 0,0 UV-I 0,0 C 54 % 87 % 0 % 1013,7 hPa 0,0 l/m 8,0 km/h (2 Bft) 0 min 0 min 21,7 km/h (4 Bft)
20.01.2012 09:04 11,3 C 4,7 C 0,0 UV-I 0,0 C 54 % 87 % 0 % 1013,8 hPa 0,0 l/m 7,6 km/h (2 Bft) 0 min 0 min 16,5 km/h (3 Bft)
20.01.2012 09:06 11,3 C 4,7 C 0,0 UV-I 0,0 C 54 % 87 % 0 % 1013,8 hPa 0,0 l/m 8,8 km/h (2 Bft) 0 min 0 min 29,3 km/h (5 Bft)
20.01.2012 09:08 11,5 C 4,7 C 0,0 UV-I 0,0 C 54 % 87 % 0 % 1013,8 hPa 0,0 l/m 8,8 km/h (2 Bft) 0 min 0 min 29,3 km/h (5 Bft)
20.01.2012 09:10 11,5 C 4,7 C 0,0 UV-I 0,0 C 54 % 87 % 0 % 1013,8 hPa 0,0 l/m 10,0 km/h (2 Bft) 0 min 0 min 24,9 km/h (4 Bft)
20.01.2012 09:12 11,5 C 4,7 C 0,0 UV-I 0,0 C 54 % 87 % 0 % 1013,8 hPa 0,0 l/m 10,4 km/h (2 Bft) 0 min 0 min 24,9 km/h (4 Bft)
20.01.2012 09:14 11,5 C 4,8 C 0,0 UV-I 0,0 C 54 % 87 % 0 % 1013,8 hPa 0,0 l/m 10,0 km/h (2 Bft) 0 min 0 min 14,1 km/h (3 Bft)
20.01.2012 09:16 11,5 C 4,8 C 0,0 UV-I 0,0 C 54 % 87 % 0 % 1013,8 hPa 0,0 l/m 10,0 km/h (2 Bft) 0 min 0 min 14,1 km/h (3 Bft)
20.01.2012 09:18 11,4 C 4,8 C 0,0 UV-I 0,0 C 54 % 87 % 0 % 1013,8 hPa 0,0 l/m 9,6 km/h (2 Bft) 0 min 2 min 12,0 km/h (2 Bft)
20.01.2012 09:20 11,5 C 4,8 C 0,0 UV-I 0,0 C 54 % 87 % 0 % 1013,8 hPa 0,0 l/m 9,2 km/h (2 Bft) 0 min 2 min 12,4 km/h (3 Bft)
20.01.2012 09:22 11,4 C 4,8 C 0,0 UV-I 0,0 C 54 % 87 % 0 % 1013,8 hPa 0,0 l/m 8,4 km/h (2 Bft) 0 min 2 min 13,3 km/h (3 Bft)
20.01.2012 09:24 11,6 C 4,9 C 0,0 UV-I 0,0 C 54 % 87 % 0 % 1013,9 hPa 0,0 l/m 8,4 km/h (2 Bft) 0 min 0 min 13,3 km/h (3 Bft)
20.01.2012 09:26 11,6 C 4,9 C 0,0 UV-I 0,0 C 54 % 87 % 0 % 1013,9 hPa 0,0 l/m 8,8 km/h (2 Bft) 0 min 0 min 12,8 km/h (3 Bft)
20.01.2012 09:28 11,6 C 4,9 C 0,0 UV-I 0,0 C 54 % 87 % 0 % 1013,9 hPa 0,0 l/m 9,6 km/h (2 Bft) 0 min 0 min 12,8 km/h (3 Bft)
20.01.2012 09:30 11,6 C 4,9 C 0,0 UV-I 0,0 C 54 % 87 % 0 % 1013,9 hPa 0,0 l/m 9,6 km/h (2 Bft) 0 min 0 min 10,4 km/h (2 Bft)
20.01.2012 09:32 11,6 C 4,8 C 0,0 UV-I 0,0 C 54 % 87 % 0 % 1013,9 hPa 0,0 l/m 10,4 km/h (2 Bft) 0 min 0 min 20,9 km/h (4 Bft)
20.01.2012 09:34 11,6 C 4,9 C 0,0 UV-I 0,0 C 54 % 87 % 0 % 1013,9 hPa 0,0 l/m 10,4 km/h (2 Bft) 0 min 0 min 20,9 km/h (4 Bft)
20.01.2012 09:36 11,6 C 4,8 C 0,0 UV-I 0,0 C 54 % 87 % 0 % 1013,9 hPa 0,0 l/m 10,4 km/h (2 Bft) 0 min 0 min 12,4 km/h (3 Bft)
20.01.2012 09:38 11,6 C 4,9 C 0,0 UV-I 0,0 C 54 % 87 % 0 % 1013,9 hPa 0,0 l/m 10,4 km/h (2 Bft) 0 min 0 min 13,7 km/h (3 Bft)
20.01.2012 09:40 11,6 C 4,8 C 0,0 UV-I 0,0 C 54 % 87 % 0 % 1013,9 hPa 0,0 l/m 11,2 km/h (2 Bft) 0 min 0 min 13,7 km/h (3 Bft)
20.01.2012 09:42 11,6 C 4,8 C 0,0 UV-I 0,0 C 54 % 87 % 0 % 1013,9 hPa 0,0 l/m 11,6 km/h (2 Bft) 0 min 0 min 16,1 km/h (3 Bft)
20.01.2012 09:44 11,6 C 4,8 C 0,0 UV-I 0,0 C 54 % 87 % 0 % 1014,0 hPa 0,0 l/m 12,4 km/h (3 Bft) 0 min 0 min 16,9 km/h (3 Bft)
20.01.2012 09:46 11,6 C 4,8 C 0,0 UV-I 0,0 C 54 % 87 % 0 % 1014,0 hPa 0,0 l/m 12,4 km/h (3 Bft) 0 min 0 min 16,9 km/h (3 Bft)
20.01.2012 09:48 11,6 C 4,9 C 0,0 UV-I 0,0 C 54 % 87 % 0 % 1014,0 hPa 0,0 l/m 12,0 km/h (2 Bft) 0 min 0 min 18,9 km/h (3 Bft)
20.01.2012 09:50 11,6 C 4,8 C 0,0 UV-I 0,0 C 54 % 87 % 0 % 1014,0 hPa 0,0 l/m 12,0 km/h (2 Bft) 0 min 0 min 18,9 km/h (3 Bft)
20.01.2012 09:52 11,6 C 4,8 C 0,0 UV-I 0,0 C 54 % 87 % 0 % 1014,0 hPa 0,0 l/m 12,0 km/h (2 Bft) 0 min 0 min 18,5 km/h (3 Bft)
20.01.2012 09:54 11,6 C 4,8 C 0,0 UV-I 0,0 C 54 % 87 % 0 % 1014,0 hPa 0,0 l/m 10,8 km/h (2 Bft) 0 min 0 min 21,3 km/h (4 Bft)
20.01.2012 09:56 11,6 C 4,8 C 0,0 UV-I 0,0 C 54 % 87 % 0 % 1014,0 hPa 0,0 l/m 10,4 km/h (2 Bft) 0 min 0 min 21,3 km/h (4 Bft)
20.01.2012 09:58 11,7 C 4,8 C 0,0 UV-I 0,0 C 54 % 87 % 0 % 1014,0 hPa 0,0 l/m 9,6 km/h (2 Bft) 0 min 2 min 12,0 km/h (2 Bft)
20.01.2012 10:00 11,7 C 4,8 C 0,0 UV-I 0,0 C 54 % 87 % 0 % 1014,0 hPa 0,0 l/m 9,6 km/h (2 Bft) 0 min 2 min 15,7 km/h (3 Bft)
20.01.2012 10:02 11,6 C 4,8 C 0,0 UV-I 0,0 C 54 % 87 % 0 % 1014,0 hPa 0,0 l/m 8,8 km/h (2 Bft) 0 min 2 min 15,7 km/h (3 Bft)
20.01.2012 10:04 11,6 C 4,8 C 0,0 UV-I 0,0 C 54 % 88 % 0 % 1013,9 hPa 0,0 l/m 8,8 km/h (2 Bft) 0 min 0 min 13,3 km/h (3 Bft)
20.01.2012 10:06 11,6 C 4,9 C 0,0 UV-I 0,0 C 54 % 88 % 0 % 1013,9 hPa 0,0 l/m 8,4 km/h (2 Bft) 0 min 2 min 13,3 km/h (3 Bft)
20.01.2012 10:08 11,6 C 4,8 C 0,0 UV-I 0,0 C 54 % 88 % 0 % 1013,9 hPa 0,0 l/m 8,8 km/h (2 Bft) 0 min 2 min 12,4 km/h (3 Bft)
20.01.2012 10:10 11,6 C 4,8 C 0,0 UV-I 0,0 C 54 % 88 % 0 % 1013,9 hPa 0,0 l/m 8,4 km/h (2 Bft) 0 min 2 min 12,8 km/h (3 Bft)
20.01.2012 10:12 11,8 C 4,8 C 0,0 UV-I 0,0 C 54 % 88 % 0 % 1013,9 hPa 0,0 l/m 8,0 km/h (2 Bft) 0 min 2 min 12,8 km/h (3 Bft)
20.01.2012 10:14 11,8 C 4,8 C 0,0 UV-I 0,0 C 54 % 88 % 0 % 1013,9 hPa 0,0 l/m 8,4 km/h (2 Bft) 0 min 0 min 11,6 km/h (2 Bft)
20.01.2012 10:16 11,8 C 4,9 C 0,0 UV-I 0,0 C 54 % 88 % 0 % 1013,9 hPa 0,0 l/m 9,6 km/h (2 Bft) 0 min 0 min 20,5 km/h (4 Bft)
20.01.2012 10:18 11,8 C 4,8 C 0,0 UV-I 0,0 C 54 % 89 % 0 % 1013,9 hPa 0,0 l/m 9,6 km/h (2 Bft) 0 min 0 min 20,5 km/h (4 Bft)
20.01.2012 10:20 11,8 C 4,8 C 0,0 UV-I 0,0 C 54 % 89 % 0 % 1013,9 hPa 0,0 l/m 10,4 km/h (2 Bft) 0 min 2 min 11,2 km/h (2 Bft)
20.01.2012 10:22 11,8 C 4,8 C 0,0 UV-I 0,0 C 54 % 89 % 0 % 1013,9 hPa 0,0 l/m 10,4 km/h (2 Bft) 0 min 2 min 11,2 km/h (2 Bft)
20.01.2012 10:24 11,8 C 4,8 C 0,0 UV-I 0,0 C 54 % 89 % 0 % 1014,0 hPa 0,0 l/m 11,6 km/h (2 Bft) 0 min 2 min 27,7 km/h (4 Bft)
20.01.2012 10:26 11,8 C 4,8 C 0,0 UV-I 0,0 C 54 % 89 % 0 % 1014,0 hPa 0,0 l/m 12,0 km/h (2 Bft) 0 min 0 min 27,7 km/h (4 Bft)
20.01.2012 10:28 11,8 C 4,9 C 0,0 UV-I 0,0 C 54 % 89 % 0 % 1014,0 hPa 0,0 l/m 12,4 km/h (3 Bft) 0 min 0 min 19,7 km/h (3 Bft)
20.01.2012 10:30 11,8 C 4,8 C 0,0 UV-I 0,0 C 54 % 89 % 0 % 1014,0 hPa 0,0 l/m 12,4 km/h (3 Bft) 0 min 0 min 19,7 km/h (3 Bft)
20.01.2012 10:32 11,8 C 4,7 C 0,0 UV-I 0,0 C 54 % 89 % 0 % 1014,0 hPa 0,0 l/m 12,8 km/h (3 Bft) 0 min 0 min 22,9 km/h (4 Bft)
20.01.2012 10:34 11,8 C 4,7 C 0,0 UV-I 0,0 C 54 % 89 % 0 % 1014,0 hPa 0,0 l/m 12,0 km/h (2 Bft) 0 min 0 min 22,9 km/h (4 Bft)
20.01.2012 10:36 11,8 C 4,7 C 0,0 UV-I 0,0 C 54 % 89 % 0 % 1014,0 hPa 0,0 l/m 12,0 km/h (2 Bft) 0 min 0 min 16,1 km/h (3 Bft)
20.01.2012 10:38 11,8 C 4,8 C 0,0 UV-I 0,0 C 55 % 90 % 0 % 1014,0 hPa 0,0 l/m 10,8 km/h (2 Bft) 0 min 0 min 16,1 km/h (3 Bft)
20.01.2012 10:40 11,8 C 4,8 C 0,0 UV-I 0,0 C 54 % 90 % 0 % 1014,0 hPa 0,0 l/m 10,8 km/h (2 Bft) 0 min 2 min 26,1 km/h (4 Bft)
20.01.2012 10:42 11,9 C 4,8 C 0,0 UV-I 0,0 C 54 % 90 % 0 % 1014,0 hPa 0,0 l/m 11,6 km/h (2 Bft) 0 min 2 min 26,1 km/h (4 Bft)
20.01.2012 10:44 11,9 C 4,8 C 0,0 UV-I 0,0 C 55 % 90 % 0 % 1014,4 hPa 0,0 l/m 12,0 km/h (2 Bft) 0 min 2 min 17,7 km/h (3 Bft)
20.01.2012 10:46 11,8 C 4,7 C 0,0 UV-I 0,0 C 55 % 90 % 0 % 1014,4 hPa 0,0 l/m 12,4 km/h (3 Bft) 0 min 2 min 24,1 km/h (4 Bft)
20.01.2012 10:48 11,8 C 4,7 C 0,0 UV-I 0,0 C 55 % 90 % 0 % 1014,4 hPa 0,1 l/m 12,8 km/h (3 Bft) 0 min 2 min 24,1 km/h (4 Bft)
20.01.2012 10:50 11,9 C 4,5 C 0,0 UV-I 0,0 C 55 % 90 % 0 % 1014,4 hPa 0,0 l/m 12,8 km/h (3 Bft) 0 min 2 min 14,5 km/h (3 Bft)
20.01.2012 10:52 11,9 C 4,4 C 0,0 UV-I 0,0 C 55 % 90 % 0 % 1014,4 hPa 0,0 l/m 11,6 km/h (2 Bft) 0 min 2 min 11,2 km/h (2 Bft)
20.01.2012 10:54 11,9 C 4,4 C 0,0 UV-I 0,0 C 55 % 91 % 0 % 1014,4 hPa 0,0 l/m 10,8 km/h (2 Bft) 0 min 0 min 11,2 km/h (2 Bft)
20.01.2012 10:56 11,9 C 4,4 C 0,0 UV-I 0,0 C 55 % 91 % 0 % 1014,4 hPa 0,0 l/m 10,4 km/h (2 Bft) 0 min 0 min 16,1 km/h (3 Bft)
20.01.2012 10:58 11,9 C 4,5 C 0,0 UV-I 0,0 C 55 % 91 % 0 % 1014,4 hPa 0,0 l/m 10,4 km/h (2 Bft) 0 min 0 min 17,7 km/h (3 Bft)
20.01.2012 11:00 11,9 C 4,5 C 0,0 UV-I 0,0 C 55 % 91 % 0 % 1014,4 hPa 0,0 l/m 9,2 km/h (2 Bft) 0 min 0 min 23,7 km/h (4 Bft)
20.01.2012 11:02 11,9 C 4,5 C 0,0 UV-I 0,0 C 55 % 92 % 0 % 1014,4 hPa 0,0 l/m 9,6 km/h (2 Bft) 0 min 0 min 23,7 km/h (4 Bft)
20.01.2012 11:04 11,8 C 4,5 C 0,0 UV-I 0,0 C 55 % 92 % 0 % 1014,5 hPa 0,0 l/m 10,0 km/h (2 Bft) 0 min 0 min 7,6 km/h (2 Bft)
20.01.2012 11:06 11,8 C 4,5 C 0,0 UV-I 0,0 C 55 % 92 % 0 % 1014,5 hPa 0,0 l/m 10,4 km/h (2 Bft) 0 min 0 min 10,8 km/h (2 Bft)
20.01.2012 11:08 11,8 C 4,6 C 0,0 UV-I 0,0 C 55 % 92 % 0 % 1014,5 hPa 0,0 l/m 10,0 km/h (2 Bft) 0 min 0 min 10,8 km/h (2 Bft)
20.01.2012 11:10 12,0 C 4,5 C 0,0 UV-I 0,0 C 55 % 92 % 0 % 1014,5 hPa 0,0 l/m 8,4 km/h (2 Bft) 0 min 0 min 12,0 km/h (2 Bft)
20.01.2012 11:12 12,0 C 4,5 C 0,0 UV-I 0,0 C 55 % 92 % 0 % 1014,5 hPa 0,0 l/m 8,8 km/h (2 Bft) 0 min 0 min 16,1 km/h (3 Bft)
20.01.2012 11:14 12,0 C 4,5 C 0,0 UV-I 0,0 C 55 % 92 % 0 % 1014,5 hPa 0,1 l/m 8,4 km/h (2 Bft) 0 min 0 min 16,1 km/h (3 Bft)
20.01.2012 11:16 12,0 C 4,5 C 0,0 UV-I 0,0 C 55 % 92 % 0 % 1014,5 hPa 0,0 l/m 8,4 km/h (2 Bft) 0 min 0 min 21,7 km/h (4 Bft)
20.01.2012 11:18 12,0 C 4,5 C 0,0 UV-I 0,0 C 55 % 92 % 0 % 1014,5 hPa 0,0 l/m 7,6 km/h (2 Bft) 0 min 0 min 21,7 km/h (4 Bft)
20.01.2012 11:20 12,0 C 4,4 C 0,0 UV-I 0,0 C 55 % 92 % 0 % 1014,5 hPa 0,0 l/m 8,4 km/h (2 Bft) 0 min 0 min 6,8 km/h (2 Bft)
20.01.2012 11:22 12,0 C 4,4 C 0,0 UV-I 0,0 C 55 % 92 % 0 % 1014,5 hPa 0,0 l/m 8,0 km/h (2 Bft) 0 min 0 min 10,8 km/h (2 Bft)
20.01.2012 11:24 12,0 C 4,5 C 0,0 UV-I 0,0 C 55 % 92 % 0 % 1014,2 hPa 0,0 l/m 7,6 km/h (2 Bft) 0 min 0 min 10,8 km/h (2 Bft)
20.01.2012 11:26 12,0 C 4,4 C 0,0 UV-I 0,0 C 55 % 92 % 0 % 1014,2 hPa 0,0 l/m 7,6 km/h (2 Bft) 0 min 0 min 14,5 km/h (3 Bft)
20.01.2012 11:28 11,9 C 4,4 C 0,1 UV-I 0,0 C 55 % 92 % 0 % 1014,2 hPa 0,0 l/m 8,0 km/h (2 Bft) 0 min 0 min 21,3 km/h (4 Bft)
20.01.2012 11:30 11,9 C 4,5 C 0,1 UV-I 0,0 C 55 % 92 % 0 % 1014,2 hPa 0,0 l/m 8,8 km/h (2 Bft) 0 min 0 min 21,3 km/h (4 Bft)
20.01.2012 11:32 11,9 C 4,5 C 0,1 UV-I 0,0 C 55 % 92 % 0 % 1014,2 hPa 0,0 l/m 9,2 km/h (2 Bft) 0 min 0 min 18,5 km/h (3 Bft)
20.01.2012 11:34 11,9 C 4,5 C 0,1 UV-I 0,0 C 55 % 92 % 0 % 1014,2 hPa 0,0 l/m 9,2 km/h (2 Bft) 0 min 0 min 18,5 km/h (3 Bft)
20.01.2012 11:36 11,9 C 4,5 C 0,1 UV-I 0,0 C 55 % 92 % 0 % 1014,2 hPa 0,0 l/m 10,0 km/h (2 Bft) 0 min 0 min 18,9 km/h (3 Bft)
20.01.2012 11:38 11,9 C 4,7 C 0,1 UV-I 0,0 C 55 % 92 % 0 % 1014,2 hPa 0,0 l/m 10,4 km/h (2 Bft) 0 min 2 min 18,9 km/h (3 Bft)
20.01.2012 11:40 11,9 C 4,7 C 0,1 UV-I 0,0 C 55 % 92 % 0 % 1014,2 hPa 0,0 l/m 9,2 km/h (2 Bft) 0 min 2 min 14,5 km/h (3 Bft)
20.01.2012 11:42 11,9 C 4,6 C 0,1 UV-I 0,0 C 55 % 92 % 0 % 1014,2 hPa 0,0 l/m 9,6 km/h (2 Bft) 0 min 2 min 31,3 km/h (5 Bft)
20.01.2012 11:44 11,9 C 4,7 C 0,0 UV-I 0,0 C 55 % 92 % 0 % 1014,2 hPa 0,0 l/m 10,0 km/h (2 Bft) 0 min 2 min 31,3 km/h (5 Bft)
20.01.2012 11:46 11,9 C 4,7 C 0,0 UV-I 0,0 C 55 % 92 % 0 % 1014,2 hPa 0,0 l/m 11,6 km/h (2 Bft) 0 min 2 min 26,1 km/h (4 Bft)
20.01.2012 11:48 11,9 C 4,6 C 0,0 UV-I 0,0 C 55 % 92 % 0 % 1014,2 hPa 0,0 l/m 11,6 km/h (2 Bft) 0 min 2 min 26,1 km/h (4 Bft)
20.01.2012 11:50 12,1 C 4,5 C 0,0 UV-I 0,0 C 55 % 92 % 0 % 1014,2 hPa 0,1 l/m 11,2 km/h (2 Bft) 0 min 2 min 13,3 km/h (3 Bft)
20.01.2012 11:52 11,9 C 4,5 C 0,0 UV-I 0,0 C 55 % 92 % 0 % 1014,2 hPa 0,1 l/m 10,8 km/h (2 Bft) 0 min 2 min 14,5 km/h (3 Bft)
20.01.2012 11:54 11,9 C 4,5 C 0,0 UV-I 0,0 C 55 % 92 % 0 % 1014,2 hPa 0,0 l/m 12,0 km/h (2 Bft) 0 min 2 min 15,3 km/h (3 Bft)
20.01.2012 11:56 11,9 C 4,2 C 0,0 UV-I 0,0 C 55 % 92 % 0 % 1014,2 hPa 0,1 l/m 10,8 km/h (2 Bft) 0 min 2 min 15,3 km/h (3 Bft)
20.01.2012 11:58 11,9 C 4,1 C 0,0 UV-I 0,0 C 55 % 91 % 0 % 1014,2 hPa 0,0 l/m 10,4 km/h (2 Bft) 0 min 2 min 14,5 km/h (3 Bft)
20.01.2012 12:00 11,9 C 4,0 C 0,0 UV-I 0,0 C 55 % 92 % 0 % 1014,2 hPa 0,1 l/m 9,6 km/h (2 Bft) 0 min 2 min 12,0 km/h (2 Bft)
20.01.2012 12:02 11,9 C 4,0 C 0,0 UV-I 0,0 C 55 % 92 % 0 % 1014,2 hPa 0,0 l/m 9,2 km/h (2 Bft) 0 min 0 min 8,0 km/h (2 Bft)
20.01.2012 12:04 11,9 C 4,0 C 0,0 UV-I 0,0 C 55 % 92 % 0 % 1014,5 hPa 0,0 l/m 9,2 km/h (2 Bft) 0 min 0 min 4,4 km/h (1 Bft)
20.01.2012 12:06 11,9 C 4,0 C 0,0 UV-I 0,0 C 55 % 92 % 0 % 1014,5 hPa 0,0 l/m 6,8 km/h (2 Bft) 0 min 2 min 5,6 km/h (1 Bft)
20.01.2012 12:08 11,9 C 4,0 C 0,0 UV-I 0,0 C 55 % 92 % 0 % 1014,5 hPa 0,1 l/m 6,0 km/h (2 Bft) 0 min 2 min 5,6 km/h (1 Bft)
20.01.2012 12:10 12,1 C 4,0 C 0,0 UV-I 0,0 C 55 % 92 % 0 % 1014,5 hPa 0,0 l/m 6,0 km/h (2 Bft) 0 min 2 min 4,0 km/h (1 Bft)
20.01.2012 12:12 12,1 C 4,0 C 0,0 UV-I 0,0 C 55 % 92 % 0 % 1014,5 hPa 0,1 l/m 5,2 km/h (1 Bft) 0 min 2 min 0,0 km/h (0 Bft)
20.01.2012 12:14 11,9 C 4,1 C 0,0 UV-I 0,0 C 55 % 92 % 0 % 1014,5 hPa 0,0 l/m 4,8 km/h (1 Bft) 0 min 2 min 11,2 km/h (2 Bft)
20.01.2012 12:16 11,9 C 4,0 C 0,0 UV-I 0,0 C 55 % 93 % 0 % 1014,5 hPa 0,0 l/m 4,0 km/h (1 Bft) 0 min 2 min 11,2 km/h (2 Bft)
20.01.2012 12:18 12,1 C 4,0 C 0,1 UV-I 0,0 C 55 % 93 % 0 % 1014,5 hPa 0,0 l/m 4,8 km/h (1 Bft) 0 min 2 min 8,0 km/h (2 Bft)
20.01.2012 12:20 12,1 C 4,1 C 0,1 UV-I 0,0 C 55 % 93 % 0 % 1014,5 hPa 0,0 l/m 4,8 km/h (1 Bft) 0 min 2 min 6,4 km/h (2 Bft)
20.01.2012 12:22 12,1 C 4,3 C 0,1 UV-I 0,0 C 55 % 93 % 0 % 1014,5 hPa 0,0 l/m 6,0 km/h (2 Bft) 0 min 2 min 12,8 km/h (3 Bft)
20.01.2012 12:24 12,1 C 4,3 C 0,4 UV-I 0,4 C 55 % 94 % 11 % 1014,1 hPa 0,0 l/m 6,0 km/h (2 Bft) 0 min 2 min 12,8 km/h (3 Bft)
20.01.2012 12:26 12,1 C 4,4 C 0,4 UV-I 0,6 C 56 % 94 % 17 % 1014,1 hPa 0,0 l/m 6,0 km/h (2 Bft) 0 min 2 min 13,7 km/h (3 Bft)
20.01.2012 12:28 12,2 C 4,5 C 0,3 UV-I 0,7 C 55 % 94 % 20 % 1014,1 hPa 0,0 l/m 5,6 km/h (1 Bft) 0 min 0 min 13,7 km/h (3 Bft)
20.01.2012 12:30 12,2 C 4,5 C 0,3 UV-I 0,7 C 55 % 94 % 20 % 1014,1 hPa 0,0 l/m 6,0 km/h (2 Bft) 0 min 0 min 8,0 km/h (2 Bft)
20.01.2012 12:32 12,2 C 4,6 C 0,3 UV-I 0,5 C 56 % 94 % 14 % 1014,1 hPa 0,0 l/m 5,6 km/h (1 Bft) 0 min 0 min 10,4 km/h (2 Bft)
20.01.2012 12:34 12,2 C 4,7 C 0,3 UV-I 0,6 C 56 % 94 % 17 % 1014,1 hPa 0,0 l/m 6,4 km/h (2 Bft) 0 min 0 min 10,4 km/h (2 Bft)
20.01.2012 12:36 12,2 C 4,7 C 0,3 UV-I 0,6 C 56 % 94 % 17 % 1014,1 hPa 0,0 l/m 6,4 km/h (2 Bft) 0 min 0 min 10,0 km/h (2 Bft)
20.01.2012 12:38 12,2 C 4,6 C 0,2 UV-I 0,6 C 56 % 94 % 17 % 1014,1 hPa 0,0 l/m 7,2 km/h (2 Bft) 0 min 0 min 8,4 km/h (2 Bft)
20.01.2012 12:40 12,2 C 4,7 C 0,2 UV-I 0,3 C 55 % 94 % 9 % 1014,1 hPa 0,0 l/m 6,4 km/h (2 Bft) 0 min 0 min 5,2 km/h (1 Bft)
20.01.2012 12:42 12,1 C 4,6 C 0,2 UV-I 0,1 C 55 % 94 % 3 % 1014,1 hPa 0,0 l/m 6,8 km/h (2 Bft) 0 min 0 min 12,0 km/h (2 Bft)
20.01.2012 12:44 12,1 C 4,7 C 0,1 UV-I 0,0 C 55 % 94 % 0 % 1014,1 hPa 0,1 l/m 6,4 km/h (2 Bft) 0 min 0 min 13,7 km/h (3 Bft)
20.01.2012 12:46 12,3 C 4,7 C 0,1 UV-I 0,0 C 56 % 93 % 0 % 1014,1 hPa 0,0 l/m 7,6 km/h (2 Bft) 0 min 0 min 16,5 km/h (3 Bft)
20.01.2012 12:48 12,1 C 4,6 C 0,1 UV-I 0,0 C 55 % 93 % 0 % 1014,1 hPa 0,0 l/m 8,0 km/h (2 Bft) 0 min 0 min 19,3 km/h (3 Bft)
20.01.2012 12:50 12,3 C 4,5 C 0,1 UV-I 0,0 C 55 % 93 % 0 % 1014,1 hPa 0,0 l/m 9,2 km/h (2 Bft) 0 min 0 min 19,3 km/h (3 Bft)
20.01.2012 12:52 12,3 C 4,5 C 0,1 UV-I 0,0 C 55 % 93 % 0 % 1014,1 hPa 0,0 l/m 9,6 km/h (2 Bft) 0 min 0 min 12,4 km/h (3 Bft)
20.01.2012 12:54 12,3 C 4,5 C 0,2 UV-I 0,0 C 55 % 92 % 0 % 1014,1 hPa 0,0 l/m 10,4 km/h (2 Bft) 0 min 0 min 8,0 km/h (2 Bft)
20.01.2012 12:56 12,1 C 4,5 C 0,2 UV-I 0,0 C 55 % 93 % 0 % 1014,1 hPa 0,0 l/m 8,8 km/h (2 Bft) 0 min 0 min 7,2 km/h (2 Bft)
20.01.2012 12:58 12,3 C 4,7 C 0,4 UV-I 0,0 C 55 % 93 % 0 % 1014,1 hPa 0,0 l/m 7,6 km/h (2 Bft) 0 min 0 min 8,4 km/h (2 Bft)
20.01.2012 13:00 12,3 C 4,8 C 0,4 UV-I 0,4 C 55 % 93 % 11 % 1014,1 hPa 0,0 l/m 7,2 km/h (2 Bft) 0 min 0 min 8,4 km/h (2 Bft)
20.01.2012 13:02 12,3 C 4,9 C 0,4 UV-I 0,5 C 55 % 93 % 14 % 1014,1 hPa 0,0 l/m 6,4 km/h (2 Bft) 0 min 0 min 11,6 km/h (2 Bft)
20.01.2012 13:04 12,3 C 4,8 C 0,4 UV-I 0,7 C 55 % 93 % 20 % 1013,9 hPa 0,0 l/m 6,4 km/h (2 Bft) 0 min 0 min 9,6 km/h (2 Bft)
20.01.2012 13:06 12,3 C 4,8 C 0,4 UV-I 0,7 C 55 % 93 % 20 % 1013,9 hPa 0,0 l/m 6,8 km/h (2 Bft) 0 min 0 min 9,6 km/h (2 Bft)
20.01.2012 13:08 12,3 C 4,8 C 0,2 UV-I 0,4 C 55 % 93 % 11 % 1013,9 hPa 0,0 l/m 7,6 km/h (2 Bft) 0 min 0 min 9,6 km/h (2 Bft)
20.01.2012 13:10 12,3 C 4,8 C 0,2 UV-I 0,2 C 55 % 93 % 6 % 1013,9 hPa 0,0 l/m 7,2 km/h (2 Bft) 0 min 2 min 17,7 km/h (3 Bft)
20.01.2012 13:12 12,3 C 4,8 C 0,2 UV-I 0,0 C 55 % 93 % 0 % 1013,9 hPa 0,0 l/m 6,8 km/h (2 Bft) 0 min 2 min 17,7 km/h (3 Bft)
20.01.2012 13:14 12,2 C 4,8 C 0,0 UV-I 0,0 C 55 % 93 % 0 % 1013,9 hPa 0,0 l/m 6,4 km/h (2 Bft) 0 min 2 min 17,7 km/h (3 Bft)
20.01.2012 13:16 12,2 C 4,8 C 0,0 UV-I 0,0 C 56 % 93 % 0 % 1013,9 hPa 0,0 l/m 5,6 km/h (1 Bft) 0 min 2 min 17,7 km/h (3 Bft)
20.01.2012 13:18 12,4 C 4,9 C 0,1 UV-I 0,3 C 56 % 93 % 9 % 1013,9 hPa 0,0 l/m 5,2 km/h (1 Bft) 0 min 2 min 5,2 km/h (1 Bft)
20.01.2012 13:20 12,4 C 5,0 C 0,1 UV-I 0,5 C 56 % 94 % 14 % 1013,9 hPa 0,0 l/m 4,8 km/h (1 Bft) 0 min 2 min 5,6 km/h (1 Bft)
20.01.2012 13:22 12,4 C 5,3 C 0,1 UV-I 1,0 C 56 % 94 % 29 % 1013,9 hPa 0,0 l/m 4,4 km/h (1 Bft) 0 min 2 min 6,0 km/h (2 Bft)
20.01.2012 13:24 12,4 C 5,3 C 0,4 UV-I 2,0 C 56 % 94 % 57 % 1013,5 hPa 0,0 l/m 5,2 km/h (1 Bft) 0 min 2 min 11,6 km/h (2 Bft)
20.01.2012 13:26 12,3 C 5,5 C 0,4 UV-I 2,3 C 56 % 94 % 66 % 1013,5 hPa 0,0 l/m 5,6 km/h (1 Bft) 0 min 0 min 12,8 km/h (3 Bft)
20.01.2012 13:28 12,3 C 5,5 C 0,0 UV-I 2,3 C 56 % 94 % 66 % 1013,5 hPa 0,0 l/m 7,2 km/h (2 Bft) 0 min 0 min 15,3 km/h (3 Bft)
20.01.2012 13:30 12,5 C 5,7 C 0,0 UV-I 2,1 C 56 % 94 % 60 % 1013,5 hPa 0,0 l/m 8,0 km/h (2 Bft) 0 min 0 min 15,3 km/h (3 Bft)
20.01.2012 13:32 12,4 C 5,7 C 0,0 UV-I 2,6 C 56 % 94 % 74 % 1013,5 hPa 0,0 l/m 8,0 km/h (2 Bft) 0 min 0 min 8,8 km/h (2 Bft)
20.01.2012 13:34 12,4 C 5,9 C 0,3 UV-I 3,0 C 56 % 94 % 86 % 1013,5 hPa 0,0 l/m 9,2 km/h (2 Bft) 2 min 0 min 16,1 km/h (3 Bft)
20.01.2012 13:36 12,6 C 6,0 C 0,3 UV-I 2,9 C 56 % 93 % 83 % 1013,5 hPa 0,0 l/m 10,0 km/h (2 Bft) 2 min 0 min 16,1 km/h (3 Bft)
20.01.2012 13:38 12,6 C 6,1 C 0,4 UV-I 3,2 C 56 % 94 % 91 % 1013,5 hPa 0,0 l/m 9,6 km/h (2 Bft) 2 min 0 min 21,3 km/h (4 Bft)
20.01.2012 13:40 12,6 C 6,1 C 0,4 UV-I 3,5 C 56 % 93 % 100 % 1013,5 hPa 0,0 l/m 10,0 km/h (2 Bft) 2 min 0 min 21,3 km/h (4 Bft)
20.01.2012 13:42 12,6 C 6,3 C 0,4 UV-I 3,5 C 56 % 93 % 100 % 1013,5 hPa 0,0 l/m 10,4 km/h (2 Bft) 2 min 0 min 15,7 km/h (3 Bft)
20.01.2012 13:44 12,6 C 6,3 C 0,6 UV-I 3,6 C 56 % 93 % 100 % 1013,4 hPa 0,0 l/m 11,6 km/h (2 Bft) 2 min 0 min 16,9 km/h (3 Bft)
20.01.2012 13:46 12,7 C 6,3 C 0,6 UV-I 3,8 C 56 % 92 % 100 % 1013,4 hPa 0,0 l/m 11,6 km/h (2 Bft) 2 min 0 min 16,9 km/h (3 Bft)
20.01.2012 13:48 12,6 C 6,2 C 0,5 UV-I 3,3 C 56 % 91 % 94 % 1013,4 hPa 0,0 l/m 12,4 km/h (3 Bft) 2 min 0 min 23,3 km/h (4 Bft)
20.01.2012 13:50 12,6 C 6,2 C 0,5 UV-I 3,0 C 56 % 91 % 86 % 1013,4 hPa 0,0 l/m 10,8 km/h (2 Bft) 2 min 0 min 23,3 km/h (4 Bft)
20.01.2012 13:52 12,8 C 6,2 C 0,5 UV-I 2,1 C 56 % 91 % 60 % 1013,4 hPa 0,0 l/m 11,6 km/h (2 Bft) 0 min 0 min 20,5 km/h (4 Bft)
20.01.2012 13:54 12,8 C 6,1 C 0,4 UV-I 2,1 C 56 % 91 % 60 % 1013,4 hPa 0,0 l/m 11,6 km/h (2 Bft) 0 min 0 min 20,5 km/h (4 Bft)
20.01.2012 13:56 12,8 C 6,1 C 0,4 UV-I 1,9 C 56 % 91 % 54 % 1013,4 hPa 0,0 l/m 10,4 km/h (2 Bft) 0 min 0 min 14,5 km/h (3 Bft)
20.01.2012 13:58 12,8 C 6,1 C 0,4 UV-I 1,5 C 55 % 91 % 43 % 1013,4 hPa 0,0 l/m 10,0 km/h (2 Bft) 0 min 0 min 16,1 km/h (3 Bft)
20.01.2012 14:00 12,8 C 6,0 C 0,4 UV-I 1,1 C 55 % 90 % 31 % 1013,4 hPa 0,0 l/m 9,2 km/h (2 Bft) 0 min 0 min 16,1 km/h (3 Bft)
20.01.2012 14:02 12,9 C 5,9 C 0,4 UV-I 0,6 C 55 % 90 % 17 % 1013,4 hPa 0,0 l/m 9,6 km/h (2 Bft) 0 min 0 min 13,7 km/h (3 Bft)
20.01.2012 14:04 12,9 C 5,9 C 0,3 UV-I 0,3 C 55 % 90 % 9 % 1013,2 hPa 0,0 l/m 9,2 km/h (2 Bft) 0 min 0 min 10,0 km/h (2 Bft)
20.01.2012 14:06 12,8 C 5,8 C 0,3 UV-I 0,4 C 55 % 90 % 11 % 1013,2 hPa 0,0 l/m 8,8 km/h (2 Bft) 0 min 0 min 13,3 km/h (3 Bft)
20.01.2012 14:08 12,8 C 5,9 C 0,0 UV-I 0,0 C 55 % 90 % 0 % 1013,2 hPa 0,0 l/m 9,2 km/h (2 Bft) 0 min 0 min 13,3 km/h (3 Bft)
20.01.2012 14:10 12,8 C 5,9 C 0,0 UV-I 0,0 C 55 % 90 % 0 % 1013,2 hPa 0,0 l/m 9,6 km/h (2 Bft) 0 min 2 min 17,3 km/h (3 Bft)
20.01.2012 14:12 12,8 C 5,8 C 0,0 UV-I 0,0 C 55 % 90 % 0 % 1013,2 hPa 0,0 l/m 10,0 km/h (2 Bft) 0 min 2 min 47,0 km/h (6 Bft)
20.01.2012 14:14 12,8 C 5,7 C 0,0 UV-I 0,0 C 55 % 90 % 0 % 1013,2 hPa 0,0 l/m 10,0 km/h (2 Bft) 0 min 2 min 47,0 km/h (6 Bft)
20.01.2012 14:16 12,8 C 5,7 C 0,0 UV-I 0,0 C 55 % 90 % 0 % 1013,2 hPa 0,0 l/m 11,2 km/h (2 Bft) 0 min 2 min 17,3 km/h (3 Bft)
20.01.2012 14:18 12,8 C 5,7 C 0,0 UV-I 0,0 C 54 % 90 % 0 % 1013,2 hPa 0,0 l/m 11,6 km/h (2 Bft) 0 min 0 min 21,3 km/h (4 Bft)
20.01.2012 14:20 13,0 C 5,7 C 0,0 UV-I 0,0 C 54 % 90 % 0 % 1013,2 hPa 0,0 l/m 11,6 km/h (2 Bft) 0 min 0 min 21,3 km/h (4 Bft)
20.01.2012 14:22 13,0 C 5,7 C 0,0 UV-I 0,0 C 54 % 90 % 0 % 1013,2 hPa 0,0 l/m 10,8 km/h (2 Bft) 0 min 0 min 47,0 km/h (6 Bft)
20.01.2012 14:24 13,0 C 5,7 C 0,0 UV-I 0,0 C 54 % 90 % 0 % 1013,2 hPa 0,0 l/m 9,2 km/h (2 Bft) 0 min 0 min 11,2 km/h (2 Bft)
20.01.2012 14:26 12,8 C 5,7 C 0,0 UV-I 0,0 C 54 % 90 % 0 % 1013,2 hPa 0,0 l/m 8,4 km/h (2 Bft) 0 min 0 min 11,2 km/h (2 Bft)
20.01.2012 14:28 12,8 C 5,6 C 0,0 UV-I 0,0 C 54 % 89 % 0 % 1013,2 hPa 0,0 l/m 8,0 km/h (2 Bft) 0 min 0 min 12,8 km/h (3 Bft)
20.01.2012 14:30 13,0 C 5,6 C 0,0 UV-I 0,0 C 54 % 89 % 0 % 1013,2 hPa 0,0 l/m 6,8 km/h (2 Bft) 0 min 0 min 12,8 km/h (3 Bft)
20.01.2012 14:32 12,8 C 5,7 C 0,0 UV-I 0,0 C 54 % 89 % 0 % 1013,2 hPa 0,0 l/m 7,2 km/h (2 Bft) 0 min 0 min 12,8 km/h (3 Bft)
20.01.2012 14:34 12,8 C 5,6 C 0,0 UV-I 0,0 C 54 % 89 % 0 % 1013,2 hPa 0,0 l/m 6,8 km/h (2 Bft) 0 min 0 min 12,4 km/h (3 Bft)
20.01.2012 14:36 13,0 C 5,7 C 0,0 UV-I 0,0 C 54 % 88 % 0 % 1013,2 hPa 0,0 l/m 7,6 km/h (2 Bft) 0 min 0 min 12,4 km/h (3 Bft)
20.01.2012 14:38 13,0 C 5,6 C 0,0 UV-I 0,0 C 54 % 88 % 0 % 1013,2 hPa 0,0 l/m 6,8 km/h (2 Bft) 0 min 0 min 10,4 km/h (2 Bft)
20.01.2012 14:40 13,0 C 5,6 C 0,0 UV-I 0,0 C 54 % 89 % 0 % 1013,2 hPa 0,0 l/m 7,2 km/h (2 Bft) 0 min 0 min 11,2 km/h (2 Bft)
20.01.2012 14:42 13,0 C 5,7 C 0,0 UV-I 0,0 C 54 % 89 % 0 % 1013,2 hPa 0,0 l/m 6,4 km/h (2 Bft) 0 min 0 min 11,2 km/h (2 Bft)
20.01.2012 14:44 13,0 C 5,7 C 0,0 UV-I 0,0 C 54 % 89 % 0 % 1013,4 hPa 0,0 l/m 6,0 km/h (2 Bft) 0 min 0 min 7,2 km/h (2 Bft)
20.01.2012 14:46 13,0 C 5,6 C 0,0 UV-I 0,0 C 54 % 89 % 0 % 1013,4 hPa 0,0 l/m 6,0 km/h (2 Bft) 0 min 0 min 13,7 km/h (3 Bft)
20.01.2012 14:48 13,0 C 5,6 C 0,0 UV-I 0,0 C 54 % 89 % 0 % 1013,4 hPa 0,0 l/m 5,6 km/h (1 Bft) 0 min 0 min 13,7 km/h (3 Bft)
20.01.2012 14:50 12,8 C 5,6 C 0,0 UV-I 0,0 C 54 % 89 % 0 % 1013,4 hPa 0,0 l/m 5,2 km/h (1 Bft) 0 min 0 min 9,2 km/h (2 Bft)
20.01.2012 14:52 13,0 C 5,6 C 0,0 UV-I 0,0 C 54 % 89 % 0 % 1013,4 hPa 0,0 l/m 6,4 km/h (2 Bft) 0 min 0 min 19,7 km/h (3 Bft)
20.01.2012 14:54 12,8 C 5,6 C 0,0 UV-I 0,0 C 54 % 89 % 0 % 1013,4 hPa 0,0 l/m 7,2 km/h (2 Bft) 0 min 0 min 19,7 km/h (3 Bft)
20.01.2012 14:56 12,8 C 5,6 C 0,0 UV-I 0,0 C 54 % 89 % 0 % 1013,4 hPa 0,0 l/m 7,2 km/h (2 Bft) 0 min 0 min 19,7 km/h (3 Bft)
20.01.2012 14:58 12,8 C 5,7 C 0,0 UV-I 0,0 C 54 % 89 % 0 % 1013,4 hPa 0,0 l/m 7,2 km/h (2 Bft) 0 min 0 min 13,7 km/h (3 Bft)
20.01.2012 15:00 12,8 C 5,6 C 0,0 UV-I 0,0 C 54 % 89 % 0 % 1013,4 hPa 0,0 l/m 7,6 km/h (2 Bft) 0 min 0 min 13,7 km/h (3 Bft)
20.01.2012 15:02 12,8 C 5,6 C 0,0 UV-I 0,0 C 54 % 88 % 0 % 1013,4 hPa 0,0 l/m 8,4 km/h (2 Bft) 0 min 0 min 11,6 km/h (2 Bft)
20.01.2012 15:04 12,8 C 5,6 C 0,0 UV-I 0,0 C 54 % 88 % 0 % 1013,1 hPa 0,0 l/m 7,6 km/h (2 Bft) 0 min 0 min 7,6 km/h (2 Bft)
20.01.2012 15:06 12,8 C 5,7 C 0,0 UV-I 0,0 C 54 % 88 % 0 % 1013,1 hPa 0,0 l/m 7,6 km/h (2 Bft) 0 min 0 min 12,4 km/h (3 Bft)
20.01.2012 15:08 12,8 C 5,7 C 0,0 UV-I 0,0 C 54 % 88 % 0 % 1013,1 hPa 0,0 l/m 8,0 km/h (2 Bft) 0 min 0 min 12,4 km/h (3 Bft)
20.01.2012 15:10 12,9 C 5,6 C 0,0 UV-I 0,0 C 54 % 88 % 0 % 1013,1 hPa 0,0 l/m 8,0 km/h (2 Bft) 0 min 0 min 24,1 km/h (4 Bft)
20.01.2012 15:12 12,8 C 5,6 C 0,0 UV-I 0,0 C 54 % 88 % 0 % 1013,1 hPa 0,0 l/m 8,0 km/h (2 Bft) 0 min 0 min 24,1 km/h (4 Bft)
20.01.2012 15:14 12,8 C 5,6 C 0,0 UV-I 0,0 C 54 % 88 % 0 % 1013,1 hPa 0,0 l/m 7,6 km/h (2 Bft) 0 min 0 min 14,5 km/h (3 Bft)
20.01.2012 15:16 12,8 C 5,6 C 0,0 UV-I 0,0 C 54 % 88 % 0 % 1013,1 hPa 0,0 l/m 8,4 km/h (2 Bft) 0 min 0 min 13,7 km/h (3 Bft)
20.01.2012 15:18 12,8 C 5,6 C 0,0 UV-I 0,0 C 54 % 88 % 0 % 1013,1 hPa 0,0 l/m 8,8 km/h (2 Bft) 0 min 0 min 8,0 km/h (2 Bft)
20.01.2012 15:20 12,8 C 5,6 C 0,0 UV-I 0,0 C 53 % 88 % 0 % 1013,1 hPa 0,0 l/m 8,8 km/h (2 Bft) 0 min 0 min 8,8 km/h (2 Bft)
20.01.2012 15:22 12,9 C 5,6 C 0,0 UV-I 0,0 C 53 % 88 % 0 % 1013,1 hPa 0,0 l/m 8,4 km/h (2 Bft) 0 min 0 min 12,4 km/h (3 Bft)
20.01.2012 15:24 12,9 C 5,5 C 0,0 UV-I 0,0 C 53 % 88 % 0 % 1013,3 hPa 0,0 l/m 8,4 km/h (2 Bft) 0 min 0 min 13,7 km/h (3 Bft)
20.01.2012 15:26 12,9 C 5,5 C 0,0 UV-I 0,0 C 53 % 88 % 0 % 1013,3 hPa 0,0 l/m 8,8 km/h (2 Bft) 0 min 0 min 13,7 km/h (3 Bft)
20.01.2012 15:28 12,9 C 5,5 C 0,0 UV-I 0,0 C 53 % 88 % 0 % 1013,3 hPa 0,0 l/m 8,8 km/h (2 Bft) 0 min 0 min 12,8 km/h (3 Bft)
20.01.2012 15:30 12,8 C 5,5 C 0,0 UV-I 0,0 C 53 % 88 % 0 % 1013,3 hPa 0,0 l/m 8,0 km/h (2 Bft) 0 min 0 min 13,7 km/h (3 Bft)
20.01.2012 15:32 12,9 C 5,5 C 0,0 UV-I 0,0 C 53 % 88 % 0 % 1013,3 hPa 0,0 l/m 9,2 km/h (2 Bft) 0 min 0 min 17,3 km/h (3 Bft)
20.01.2012 15:34 12,8 C 5,4 C 0,0 UV-I 0,0 C 53 % 87 % 0 % 1013,3 hPa 0,0 l/m 9,2 km/h (2 Bft) 0 min 0 min 17,3 km/h (3 Bft)
20.01.2012 15:36 12,8 C 5,4 C 0,0 UV-I 0,0 C 53 % 87 % 0 % 1013,3 hPa 0,0 l/m 9,6 km/h (2 Bft) 0 min 0 min 11,6 km/h (2 Bft)
20.01.2012 15:38 12,8 C 5,4 C 0,0 UV-I 0,0 C 53 % 87 % 0 % 1013,3 hPa 0,0 l/m 10,0 km/h (2 Bft) 0 min 0 min 13,7 km/h (3 Bft)
20.01.2012 15:40 12,8 C 5,5 C 0,0 UV-I 0,0 C 53 % 87 % 0 % 1013,3 hPa 0,0 l/m 10,4 km/h (2 Bft) 0 min 0 min 13,7 km/h (3 Bft)
20.01.2012 15:42 12,8 C 5,5 C 0,0 UV-I 0,0 C 53 % 87 % 0 % 1013,3 hPa 0,0 l/m 10,0 km/h (2 Bft) 0 min 0 min 9,2 km/h (2 Bft)
20.01.2012 15:44 12,8 C 5,5 C 0,0 UV-I 0,0 C 53 % 87 % 0 % 1013,0 hPa 0,0 l/m 9,6 km/h (2 Bft) 0 min 0 min 14,5 km/h (3 Bft)
20.01.2012 15:46 12,8 C 5,4 C 0,0 UV-I 0,0 C 53 % 87 % 0 % 1013,0 hPa 0,0 l/m 9,2 km/h (2 Bft) 0 min 0 min 14,5 km/h (3 Bft)
20.01.2012 15:48 12,8 C 5,4 C 0,0 UV-I 0,0 C 53 % 87 % 0 % 1013,0 hPa 0,0 l/m 9,6 km/h (2 Bft) 0 min 0 min 12,4 km/h (3 Bft)
20.01.2012 15:50 12,8 C 5,5 C 0,0 UV-I 0,0 C 53 % 87 % 0 % 1013,0 hPa 0,0 l/m 9,6 km/h (2 Bft) 0 min 0 min 8,4 km/h (2 Bft)
20.01.2012 15:52 12,8 C 5,3 C 0,0 UV-I 0,0 C 53 % 88 % 0 % 1013,0 hPa 0,0 l/m 10,0 km/h (2 Bft) 0 min 0 min 8,4 km/h (2 Bft)
20.01.2012 15:54 12,8 C 5,3 C 0,0 UV-I 0,0 C 53 % 88 % 0 % 1013,0 hPa 0,0 l/m 9,6 km/h (2 Bft) 0 min 0 min 11,2 km/h (2 Bft)
20.01.2012 15:56 12,8 C 5,3 C 0,0 UV-I 0,0 C 53 % 88 % 0 % 1013,0 hPa 0,0 l/m 9,6 km/h (2 Bft) 0 min 0 min 14,9 km/h (3 Bft)
20.01.2012 15:58 12,8 C 5,2 C 0,0 UV-I 0,0 C 53 % 88 % 0 % 1013,0 hPa 0,0 l/m 9,2 km/h (2 Bft) 0 min 0 min 14,9 km/h (3 Bft)
20.01.2012 16:00 12,8 C 5,3 C 0,0 UV-I 0,0 C 53 % 88 % 0 % 1013,0 hPa 0,0 l/m 9,2 km/h (2 Bft) 0 min 0 min 12,0 km/h (2 Bft)
20.01.2012 16:02 12,6 C 5,1 C 0,0 UV-I 0,0 C 53 % 88 % 0 % 1013,0 hPa 0,0 l/m 9,2 km/h (2 Bft) 0 min 0 min 11,2 km/h (2 Bft)
20.01.2012 16:04 12,6 C 5,1 C 0,0 UV-I 0,0 C 53 % 88 % 0 % 1013,1 hPa 0,0 l/m 8,4 km/h (2 Bft) 0 min 0 min 8,4 km/h (2 Bft)
20.01.2012 16:06 12,7 C 5,1 C 0,0 UV-I 0,0 C 53 % 88 % 0 % 1013,1 hPa 0,0 l/m 7,6 km/h (2 Bft) 0 min 0 min 8,4 km/h (2 Bft)
20.01.2012 16:08 12,6 C 5,1 C 0,0 UV-I 0,0 C 53 % 88 % 0 % 1013,1 hPa 0,0 l/m 8,0 km/h (2 Bft) 0 min 0 min 12,0 km/h (2 Bft)
20.01.2012 16:10 12,6 C 5,1 C 0,0 UV-I 0,0 C 53 % 88 % 0 % 1013,1 hPa 0,0 l/m 8,0 km/h (2 Bft) 0 min 0 min 20,5 km/h (4 Bft)
20.01.2012 16:12 12,7 C 4,9 C 0,0 UV-I 0,0 C 53 % 88 % 0 % 1013,1 hPa 0,0 l/m 8,8 km/h (2 Bft) 0 min 0 min 20,5 km/h (4 Bft)
20.01.2012 16:14 12,7 C 4,9 C 0,0 UV-I 0,0 C 53 % 88 % 0 % 1013,1 hPa 0,0 l/m 9,2 km/h (2 Bft) 0 min 0 min 12,0 km/h (2 Bft)
20.01.2012 16:16 12,7 C 4,9 C 0,0 UV-I 0,0 C 53 % 88 % 0 % 1013,1 hPa 0,0 l/m 8,8 km/h (2 Bft) 0 min 0 min 12,0 km/h (2 Bft)
20.01.2012 16:18 12,7 C 4,8 C 0,0 UV-I 0,0 C 53 % 89 % 0 % 1013,1 hPa 0,0 l/m 9,2 km/h (2 Bft) 0 min 0 min 16,1 km/h (3 Bft)
20.01.2012 16:20 12,7 C 4,9 C 0,0 UV-I 0,0 C 53 % 89 % 0 % 1013,1 hPa 0,0 l/m 8,8 km/h (2 Bft) 0 min 0 min 16,1 km/h (3 Bft)
20.01.2012 16:22 12,7 C 4,9 C 0,0 UV-I 0,0 C 53 % 89 % 0 % 1013,1 hPa 0,0 l/m 7,6 km/h (2 Bft) 0 min 0 min 11,6 km/h (2 Bft)
20.01.2012 16:24 12,6 C 4,8 C 0,0 UV-I 0,0 C 53 % 89 % 0 % 1012,8 hPa 0,0 l/m 7,6 km/h (2 Bft) 0 min 0 min 19,7 km/h (3 Bft)
20.01.2012 16:26 12,6 C 4,8 C 0,0 UV-I 0,0 C 53 % 89 % 0 % 1012,8 hPa 0,0 l/m 7,2 km/h (2 Bft) 0 min 0 min 19,7 km/h (3 Bft)
20.01.2012 16:28 12,6 C 4,7 C 0,0 UV-I 0,0 C 53 % 89 % 0 % 1012,8 hPa 0,0 l/m 7,6 km/h (2 Bft) 0 min 0 min 8,0 km/h (2 Bft)
20.01.2012 16:30 12,6 C 4,7 C 0,0 UV-I 0,0 C 53 % 89 % 0 % 1012,8 hPa 0,0 l/m 6,4 km/h (2 Bft) 0 min 0 min 8,0 km/h (2 Bft)
20.01.2012 16:32 12,6 C 4,7 C 0,0 UV-I 0,0 C 53 % 89 % 0 % 1012,8 hPa 0,0 l/m 6,8 km/h (2 Bft) 0 min 0 min 9,6 km/h (2 Bft)
20.01.2012 16:34 12,6 C 4,6 C 0,0 UV-I 0,0 C 53 % 89 % 0 % 1012,8 hPa 0,0 l/m 6,0 km/h (2 Bft) 0 min 0 min 9,6 km/h (2 Bft)
20.01.2012 16:36 12,6 C 4,6 C 0,0 UV-I 0,0 C 53 % 89 % 0 % 1012,8 hPa 0,0 l/m 5,6 km/h (1 Bft) 0 min 0 min 9,2 km/h (2 Bft)
20.01.2012 16:38 12,6 C 4,5 C 0,0 UV-I 0,0 C 54 % 89 % 0 % 1012,8 hPa 0,0 l/m 5,6 km/h (1 Bft) 0 min 0 min 10,8 km/h (2 Bft)
20.01.2012 16:40 12,6 C 4,5 C 0,0 UV-I 0,0 C 53 % 90 % 0 % 1012,8 hPa 0,0 l/m 5,2 km/h (1 Bft) 0 min 0 min 10,8 km/h (2 Bft)
20.01.2012 16:42 12,6 C 4,4 C 0,0 UV-I 0,0 C 54 % 90 % 0 % 1012,8 hPa 0,0 l/m 5,2 km/h (1 Bft) 0 min 0 min 8,0 km/h (2 Bft)
20.01.2012 16:44 12,6 C 4,5 C 0,0 UV-I 0,0 C 54 % 90 % 0 % 1013,2 hPa 0,0 l/m 5,6 km/h (1 Bft) 0 min 0 min 7,6 km/h (2 Bft)
20.01.2012 16:46 12,6 C 4,4 C 0,0 UV-I 0,0 C 54 % 90 % 0 % 1013,2 hPa 0,0 l/m 6,4 km/h (2 Bft) 0 min 0 min 10,0 km/h (2 Bft)
20.01.2012 16:48 12,6 C 4,4 C 0,0 UV-I 0,0 C 54 % 90 % 0 % 1013,2 hPa 0,0 l/m 6,4 km/h (2 Bft) 0 min 0 min 13,7 km/h (3 Bft)
20.01.2012 16:50 12,6 C 4,4 C 0,0 UV-I 0,0 C 54 % 90 % 0 % 1013,2 hPa 0,0 l/m 6,8 km/h (2 Bft) 0 min 0 min 13,7 km/h (3 Bft)
20.01.2012 16:52 12,6 C 4,4 C 0,0 UV-I 0,0 C 54 % 90 % 0 % 1013,2 hPa 0,0 l/m 6,8 km/h (2 Bft) 0 min 2 min 11,6 km/h (2 Bft)
20.01.2012 16:54 12,6 C 4,3 C 0,0 UV-I 0,0 C 54 % 90 % 0 % 1013,2 hPa 0,0 l/m 8,4 km/h (2 Bft) 0 min 2 min 12,0 km/h (2 Bft)
20.01.2012 16:56 12,6 C 4,3 C 0,0 UV-I 0,0 C 54 % 90 % 0 % 1013,2 hPa 0,0 l/m 10,8 km/h (2 Bft) 0 min 2 min 26,1 km/h (4 Bft)
20.01.2012 16:58 12,4 C 4,3 C 0,0 UV-I 0,0 C 54 % 90 % 0 % 1013,2 hPa 0,1 l/m 13,3 km/h (3 Bft) 0 min 2 min 31,3 km/h (5 Bft)
20.01.2012 17:00 12,4 C 3,9 C 0,0 UV-I 0,0 C 54 % 89 % 0 % 1013,2 hPa 0,5 l/m 16,5 km/h (3 Bft) 0 min 2 min 34,5 km/h (5 Bft)
20.01.2012 17:02 12,4 C 3,6 C 0,0 UV-I 0,0 C 54 % 89 % 0 % 1013,2 hPa 0,0 l/m 18,1 km/h (3 Bft) 0 min 2 min 34,5 km/h (5 Bft)
20.01.2012 17:04 12,4 C 3,3 C 0,0 UV-I 0,0 C 54 % 89 % 0 % 1013,6 hPa 0,4 l/m 17,3 km/h (3 Bft) 0 min 2 min 7,6 km/h (2 Bft)
20.01.2012 17:06 12,4 C 3,3 C 0,0 UV-I 0,0 C 54 % 89 % 0 % 1013,6 hPa 0,0 l/m 14,9 km/h (3 Bft) 0 min 2 min 7,6 km/h (2 Bft)
20.01.2012 17:08 12,4 C 3,2 C 0,0 UV-I 0,0 C 54 % 90 % 0 % 1013,6 hPa 0,2 l/m 11,2 km/h (2 Bft) 0 min 0 min 8,4 km/h (2 Bft)
20.01.2012 17:10 12,4 C 3,1 C 0,0 UV-I 0,0 C 54 % 90 % 0 % 1013,6 hPa 0,1 l/m 7,6 km/h (2 Bft) 0 min 0 min 8,4 km/h (2 Bft)
20.01.2012 17:12 12,4 C 3,1 C 0,0 UV-I 0,0 C 55 % 90 % 0 % 1013,6 hPa 0,0 l/m 4,4 km/h (1 Bft) 0 min 0 min 0,0 km/h (0 Bft)
20.01.2012 17:14 12,4 C 3,1 C 0,0 UV-I 0,0 C 55 % 90 % 0 % 1013,6 hPa 0,1 l/m 3,2 km/h (1 Bft) 0 min 0 min 4,4 km/h (1 Bft)
20.01.2012 17:16 12,4 C 3,1 C 0,0 UV-I 0,0 C 55 % 91 % 0 % 1013,6 hPa 0,0 l/m 2,0 km/h (1 Bft) 0 min 0 min 4,4 km/h (1 Bft)
20.01.2012 17:18 12,4 C 3,0 C 0,0 UV-I 0,0 C 55 % 91 % 0 % 1013,6 hPa 0,0 l/m 1,6 km/h (1 Bft) 0 min 0 min 0,0 km/h (0 Bft)
20.01.2012 17:20 12,4 C 3,1 C 0,0 UV-I 0,0 C 55 % 91 % 0 % 1013,6 hPa 0,0 l/m 0,8 km/h (0 Bft) 0 min 0 min 0,0 km/h (0 Bft)
20.01.2012 17:22 12,5 C 3,1 C 0,0 UV-I 0,0 C 55 % 91 % 0 % 1013,6 hPa 0,0 l/m 0,8 km/h (0 Bft) 0 min 0 min 0,0 km/h (0 Bft)
20.01.2012 17:24 12,5 C 3,1 C 0,0 UV-I 0,0 C 55 % 91 % 0 % 1013,9 hPa 0,0 l/m 0,4 km/h (0 Bft) 0 min 0 min 0,0 km/h (0 Bft)
20.01.2012 17:26 12,5 C 3,1 C 0,0 UV-I 0,0 C 55 % 91 % 0 % 1013,9 hPa 0,0 l/m 0,0 km/h (0 Bft) 0 min 0 min 4,0 km/h (1 Bft)
20.01.2012 17:28 12,4 C 3,0 C 0,0 UV-I 0,0 C 55 % 91 % 0 % 1013,9 hPa 0,1 l/m 0,0 km/h (0 Bft) 0 min 0 min 4,0 km/h (1 Bft)
20.01.2012 17:30 12,5 C 3,0 C 0,0 UV-I 0,0 C 55 % 91 % 0 % 1013,9 hPa 0,0 l/m 0,0 km/h (0 Bft) 0 min 0 min 0,0 km/h (0 Bft)
20.01.2012 17:32 12,3 C 3,1 C 0,0 UV-I 0,0 C 55 % 91 % 0 % 1013,9 hPa 0,0 l/m 0,0 km/h (0 Bft) 0 min 0 min 0,0 km/h (0 Bft)
20.01.2012 17:34 12,5 C 3,1 C 0,0 UV-I 0,0 C 55 % 91 % 0 % 1013,9 hPa 0,0 l/m 0,0 km/h (0 Bft) 0 min 0 min 0,0 km/h (0 Bft)
20.01.2012 17:36 12,3 C 3,1 C 0,0 UV-I 0,0 C 55 % 91 % 0 % 1013,9 hPa 0,0 l/m 0,0 km/h (0 Bft) 0 min 0 min 0,0 km/h (0 Bft)
20.01.2012 17:38 12,3 C 3,1 C 0,0 UV-I 0,0 C 55 % 91 % 0 % 1013,9 hPa 0,0 l/m 0,0 km/h (0 Bft) 0 min 0 min 0,0 km/h (0 Bft)
20.01.2012 17:40 12,3 C 3,1 C 0,0 UV-I 0,0 C 55 % 91 % 0 % 1013,9 hPa 0,0 l/m 0,0 km/h (0 Bft) 0 min 0 min 0,0 km/h (0 Bft)
20.01.2012 17:42 12,3 C 3,1 C 0,0 UV-I 0,0 C 55 % 92 % 0 % 1013,9 hPa 0,0 l/m 0,0 km/h (0 Bft) 0 min 0 min 0,0 km/h (0 Bft)
20.01.2012 17:44 12,3 C 3,1 C 0,0 UV-I 0,0 C 55 % 92 % 0 % 1013,9 hPa 0,0 l/m 0,0 km/h (0 Bft) 0 min 0 min 0,0 km/h (0 Bft)
20.01.2012 17:46 12,3 C 3,0 C 0,0 UV-I 0,0 C 55 % 92 % 0 % 1013,9 hPa 0,0 l/m 0,0 km/h (0 Bft) 0 min 0 min 0,0 km/h (0 Bft)
20.01.2012 17:48 12,3 C 2,9 C 0,0 UV-I 0,0 C 55 % 92 % 0 % 1013,9 hPa 0,0 l/m 0,0 km/h (0 Bft) 0 min 0 min 0,0 km/h (0 Bft)
20.01.2012 17:50 12,3 C 2,9 C 0,0 UV-I 0,0 C 55 % 92 % 0 % 1013,9 hPa 0,0 l/m 0,0 km/h (0 Bft) 0 min 0 min 0,0 km/h (0 Bft)
20.01.2012 17:52 12,3 C 2,9 C 0,0 UV-I 0,0 C 55 % 92 % 0 % 1013,9 hPa 0,1 l/m 0,0 km/h (0 Bft) 0 min 0 min 0,0 km/h (0 Bft)
20.01.2012 17:54 12,3 C 2,9 C 0,0 UV-I 0,0 C 55 % 92 % 0 % 1013,9 hPa 0,0 l/m 0,0 km/h (0 Bft) 0 min 2 min 0,0 km/h (0 Bft)
20.01.2012 17:56 12,3 C 3,1 C 0,0 UV-I 0,0 C 55 % 92 % 0 % 1013,9 hPa 0,0 l/m 0,0 km/h (0 Bft) 0 min 2 min 0,0 km/h (0 Bft)
20.01.2012 17:58 12,3 C 3,1 C 0,0 UV-I 0,0 C 55 % 92 % 0 % 1013,9 hPa 0,0 l/m 0,4 km/h (0 Bft) 0 min 2 min 9,6 km/h (2 Bft)
20.01.2012 18:00 12,3 C 3,1 C 0,0 UV-I 0,0 C 55 % 93 % 0 % 1013,9 hPa 0,0 l/m 1,6 km/h (1 Bft) 0 min 2 min 9,6 km/h (2 Bft)
20.01.2012 18:02 12,3 C 3,1 C 0,0 UV-I 0,0 C 55 % 93 % 0 % 1013,9 hPa 0,1 l/m 2,8 km/h (1 Bft) 0 min 2 min 6,8 km/h (2 Bft)
20.01.2012 18:04 12,3 C 3,0 C 0,0 UV-I 0,0 C 55 % 93 % 0 % 1014,1 hPa 0,0 l/m 4,0 km/h (1 Bft) 0 min 2 min 6,8 km/h (2 Bft)
20.01.2012 18:06 12,3 C 3,0 C 0,0 UV-I 0,0 C 55 % 93 % 0 % 1014,1 hPa 0,1 l/m 5,2 km/h (1 Bft) 0 min 2 min 9,6 km/h (2 Bft)
20.01.2012 18:08 12,3 C 3,0 C 0,0 UV-I 0,0 C 55 % 93 % 0 % 1014,1 hPa 0,1 l/m 5,6 km/h (1 Bft) 0 min 2 min 9,6 km/h (2 Bft)
20.01.2012 18:10 12,3 C 3,0 C 0,0 UV-I 0,0 C 56 % 93 % 0 % 1014,1 hPa 0,0 l/m 5,6 km/h (1 Bft) 0 min 2 min 8,4 km/h (2 Bft)
20.01.2012 18:12 12,3 C 3,0 C 0,0 UV-I 0,0 C 56 % 93 % 0 % 1014,1 hPa 0,0 l/m 5,2 km/h (1 Bft) 0 min 2 min 0,0 km/h (0 Bft)
20.01.2012 18:14 12,3 C 3,0 C 0,0 UV-I 0,0 C 56 % 93 % 0 % 1014,1 hPa 0,1 l/m 4,4 km/h (1 Bft) 0 min 2 min 8,8 km/h (2 Bft)
20.01.2012 18:16 12,3 C 3,1 C 0,0 UV-I 0,0 C 55 % 93 % 0 % 1014,1 hPa 0,0 l/m 3,2 km/h (1 Bft) 0 min 2 min 8,8 km/h (2 Bft)
20.01.2012 18:18 12,3 C 3,1 C 0,0 UV-I 0,0 C 56 % 93 % 0 % 1014,1 hPa 0,0 l/m 3,2 km/h (1 Bft) 0 min 2 min 0,0 km/h (0 Bft)
20.01.2012 18:20 12,3 C 3,1 C 0,0 UV-I 0,0 C 56 % 93 % 0 % 1014,1 hPa 0,0 l/m 2,0 km/h (1 Bft) 0 min 2 min 0,0 km/h (0 Bft)
20.01.2012 18:22 12,3 C 3,1 C 0,0 UV-I 0,0 C 56 % 93 % 0 % 1014,1 hPa 0,0 l/m 1,6 km/h (1 Bft) 0 min 2 min 0,0 km/h (0 Bft)
20.01.2012 18:24 12,3 C 3,1 C 0,0 UV-I 0,0 C 56 % 93 % 0 % 1014,2 hPa 0,1 l/m 1,2 km/h (1 Bft) 0 min 2 min 0,0 km/h (0 Bft)
20.01.2012 18:26 12,3 C 2,9 C 0,0 UV-I 0,0 C 55 % 93 % 0 % 1014,2 hPa 0,0 l/m 0,8 km/h (0 Bft) 0 min 2 min 0,0 km/h (0 Bft)
20.01.2012 18:28 12,3 C 2,9 C 0,0 UV-I 0,0 C 56 % 93 % 0 % 1014,2 hPa 0,0 l/m 0,4 km/h (0 Bft) 0 min 2 min 0,0 km/h (0 Bft)
20.01.2012 18:30 12,3 C 2,9 C 0,0 UV-I 0,0 C 56 % 93 % 0 % 1014,2 hPa 0,0 l/m 0,0 km/h (0 Bft) 0 min 2 min 0,0 km/h (0 Bft)
20.01.2012 18:32 12,3 C 2,8 C 0,0 UV-I 0,0 C 56 % 93 % 0 % 1014,2 hPa 0,0 l/m 0,0 km/h (0 Bft) 0 min 2 min 0,0 km/h (0 Bft)
20.01.2012 18:34 12,3 C 2,9 C 0,0 UV-I 0,0 C 55 % 93 % 0 % 1014,2 hPa 0,0 l/m 0,0 km/h (0 Bft) 0 min 2 min 0,0 km/h (0 Bft)
20.01.2012 18:36 12,3 C 2,8 C 0,0 UV-I 0,0 C 55 % 93 % 0 % 1014,2 hPa 0,0 l/m 0,0 km/h (0 Bft) 0 min 2 min 0,0 km/h (0 Bft)
20.01.2012 18:38 12,3 C 2,7 C 0,0 UV-I 0,0 C 56 % 93 % 0 % 1014,2 hPa 0,0 l/m 0,0 km/h (0 Bft) 0 min 0 min 0,0 km/h (0 Bft)
20.01.2012 18:40 12,3 C 2,7 C 0,0 UV-I 0,0 C 55 % 93 % 0 % 1014,2 hPa 0,0 l/m 0,0 km/h (0 Bft) 0 min 0 min 0,0 km/h (0 Bft)
20.01.2012 18:42 12,3 C 2,7 C 0,0 UV-I 0,0 C 55 % 93 % 0 % 1014,2 hPa 0,0 l/m 0,0 km/h (0 Bft) 0 min 0 min 0,0 km/h (0 Bft)
20.01.2012 18:44 12,3 C 2,7 C 0,0 UV-I 0,0 C 55 % 93 % 0 % 1014,2 hPa 0,0 l/m 0,0 km/h (0 Bft) 0 min 0 min 0,0 km/h (0 Bft)
20.01.2012 18:46 12,3 C 2,6 C 0,0 UV-I 0,0 C 55 % 93 % 0 % 1014,2 hPa 0,0 l/m 0,0 km/h (0 Bft) 0 min 0 min 0,0 km/h (0 Bft)
20.01.2012 18:48 12,3 C 2,5 C 0,0 UV-I 0,0 C 55 % 93 % 0 % 1014,2 hPa 0,0 l/m 0,0 km/h (0 Bft) 0 min 0 min 0,0 km/h (0 Bft)
20.01.2012 18:50 12,4 C 2,5 C 0,0 UV-I 0,0 C 55 % 93 % 0 % 1014,2 hPa 0,0 l/m 0,0 km/h (0 Bft) 0 min 0 min 0,0 km/h (0 Bft)
20.01.2012 18:52 12,4 C 2,4 C 0,0 UV-I 0,0 C 55 % 93 % 0 % 1014,2 hPa 0,0 l/m 0,0 km/h (0 Bft) 0 min 0 min 0,0 km/h (0 Bft)
20.01.2012 18:54 12,3 C 2,4 C 0,0 UV-I 0,0 C 55 % 93 % 0 % 1014,2 hPa 0,0 l/m 0,0 km/h (0 Bft) 0 min 0 min 0,0 km/h (0 Bft)
20.01.2012 18:56 12,4 C 2,4 C 0,0 UV-I 0,0 C 55 % 93 % 0 % 1014,2 hPa 0,0 l/m 0,0 km/h (0 Bft) 0 min 0 min 0,0 km/h (0 Bft)
20.01.2012 18:58 12,4 C 2,4 C 0,0 UV-I 0,0 C 55 % 93 % 0 % 1014,2 hPa 0,0 l/m 0,0 km/h (0 Bft) 0 min 0 min 0,0 km/h (0 Bft)
20.01.2012 19:00 12,4 C 2,4 C 0,0 UV-I 0,0 C 55 % 93 % 0 % 1014,2 hPa 0,0 l/m 0,0 km/h (0 Bft) 0 min 0 min 0,0 km/h (0 Bft)
20.01.2012 19:02 12,4 C 2,4 C 0,0 UV-I 0,0 C 55 % 93 % 0 % 1014,2 hPa 0,0 l/m 0,0 km/h (0 Bft) 0 min 0 min 0,0 km/h (0 Bft)
20.01.2012 19:04 12,4 C 2,4 C 0,0 UV-I 0,0 C 55 % 93 % 0 % 1014,2 hPa 0,0 l/m 0,0 km/h (0 Bft) 0 min 0 min 0,0 km/h (0 Bft)
20.01.2012 19:06 12,4 C 2,4 C 0,0 UV-I 0,0 C 55 % 93 % 0 % 1014,2 hPa 0,0 l/m 0,0 km/h (0 Bft) 0 min 0 min 0,0 km/h (0 Bft)
20.01.2012 19:08 12,4 C 2,4 C 0,0 UV-I 0,0 C 55 % 94 % 0 % 1014,2 hPa 0,0 l/m 0,0 km/h (0 Bft) 0 min 0 min 0,0 km/h (0 Bft)
20.01.2012 19:10 12,4 C 2,4 C 0,0 UV-I 0,0 C 55 % 94 % 0 % 1014,2 hPa 0,0 l/m 0,0 km/h (0 Bft) 0 min 0 min 0,0 km/h (0 Bft)
20.01.2012 19:12 12,4 C 2,5 C 0,0 UV-I 0,0 C 55 % 94 % 0 % 1014,2 hPa 0,0 l/m 0,0 km/h (0 Bft) 0 min 0 min 0,0 km/h (0 Bft)
20.01.2012 19:14 12,4 C 2,4 C 0,0 UV-I 0,0 C 55 % 94 % 0 % 1014,2 hPa 0,0 l/m 0,0 km/h (0 Bft) 0 min 0 min 4,4 km/h (1 Bft)
20.01.2012 19:16 12,4 C 2,4 C 0,0 UV-I 0,0 C 55 % 94 % 0 % 1014,2 hPa 0,0 l/m 0,4 km/h (0 Bft) 0 min 0 min 4,4 km/h (1 Bft)
20.01.2012 19:18 12,4 C 2,5 C 0,0 UV-I 0,0 C 55 % 94 % 0 % 1014,2 hPa 0,0 l/m 0,4 km/h (0 Bft) 0 min 0 min 0,0 km/h (0 Bft)
20.01.2012 19:20 12,4 C 2,5 C 0,0 UV-I 0,0 C 55 % 94 % 0 % 1014,2 hPa 0,0 l/m 1,2 km/h (1 Bft) 0 min 0 min 4,0 km/h (1 Bft)
20.01.2012 19:22 12,4 C 2,7 C 0,0 UV-I 0,0 C 55 % 94 % 0 % 1014,2 hPa 0,0 l/m 1,2 km/h (1 Bft) 0 min 0 min 4,8 km/h (1 Bft)
20.01.2012 19:24 12,4 C 2,7 C 0,0 UV-I 0,0 C 55 % 95 % 0 % 1014,5 hPa 0,0 l/m 1,2 km/h (1 Bft) 0 min 0 min 4,8 km/h (1 Bft)
20.01.2012 19:26 12,4 C 2,7 C 0,0 UV-I 0,0 C 55 % 95 % 0 % 1014,5 hPa 0,0 l/m 1,6 km/h (1 Bft) 0 min 0 min 4,4 km/h (1 Bft)
20.01.2012 19:28 12,4 C 2,7 C 0,0 UV-I 0,0 C 55 % 95 % 0 % 1014,5 hPa 0,0 l/m 2,0 km/h (1 Bft) 0 min 0 min 7,6 km/h (2 Bft)
20.01.2012 19:30 12,4 C 2,7 C 0,0 UV-I 0,0 C 55 % 95 % 0 % 1014,5 hPa 0,0 l/m 2,0 km/h (1 Bft) 0 min 0 min 7,6 km/h (2 Bft)
20.01.2012 19:32 12,4 C 2,6 C 0,0 UV-I 0,0 C 55 % 95 % 0 % 1014,5 hPa 0,0 l/m 1,6 km/h (1 Bft) 0 min 0 min 0,0 km/h (0 Bft)
20.01.2012 19:34 12,4 C 2,7 C 0,0 UV-I 0,0 C 55 % 95 % 0 % 1014,5 hPa 0,0 l/m 1,6 km/h (1 Bft) 0 min 0 min 0,0 km/h (0 Bft)
20.01.2012 19:36 12,4 C 2,5 C 0,0 UV-I 0,0 C 55 % 95 % 0 % 1014,5 hPa 0,0 l/m 1,2 km/h (1 Bft) 0 min 0 min 0,0 km/h (0 Bft)
20.01.2012 19:38 12,4 C 2,5 C 0,0 UV-I 0,0 C 55 % 94 % 0 % 1014,5 hPa 0,0 l/m 0,8 km/h (0 Bft) 0 min 0 min 0,0 km/h (0 Bft)
20.01.2012 19:40 12,4 C 2,5 C 0,0 UV-I 0,0 C 55 % 94 % 0 % 1014,5 hPa 0,0 l/m 0,4 km/h (0 Bft) 0 min 0 min 5,2 km/h (1 Bft)
20.01.2012 19:42 12,4 C 2,5 C 0,0 UV-I 0,0 C 55 % 94 % 0 % 1014,5 hPa 0,0 l/m 0,4 km/h (0 Bft) 0 min 0 min 5,2 km/h (1 Bft)
20.01.2012 19:44 12,4 C 2,4 C 0,0 UV-I 0,0 C 55 % 95 % 0 % 1014,8 hPa 0,0 l/m 0,4 km/h (0 Bft) 0 min 0 min 0,0 km/h (0 Bft)
20.01.2012 19:46 12,4 C 2,4 C 0,0 UV-I 0,0 C 55 % 95 % 0 % 1014,8 hPa 0,0 l/m 0,8 km/h (0 Bft) 0 min 0 min 0,0 km/h (0 Bft)
20.01.2012 19:48 12,4 C 2,4 C 0,0 UV-I 0,0 C 55 % 95 % 0 % 1014,8 hPa 0,0 l/m 0,4 km/h (0 Bft) 0 min 0 min 0,0 km/h (0 Bft)
20.01.2012 19:50 12,4 C 2,5 C 0,0 UV-I 0,0 C 55 % 94 % 0 % 1014,8 hPa 0,0 l/m 0,4 km/h (0 Bft) 0 min 0 min 0,0 km/h (0 Bft)
20.01.2012 19:52 12,4 C 2,5 C 0,0 UV-I 0,0 C 55 % 95 % 0 % 1014,8 hPa 0,0 l/m 0,4 km/h (0 Bft) 0 min 0 min 0,0 km/h (0 Bft)
20.01.2012 19:54 12,2 C 2,4 C 0,0 UV-I 0,0 C 55 % 95 % 0 % 1014,8 hPa 0,0 l/m 0,4 km/h (0 Bft) 0 min 0 min 0,0 km/h (0 Bft)
20.01.2012 19:56 12,4 C 2,4 C 0,0 UV-I 0,0 C 55 % 95 % 0 % 1014,8 hPa 0,0 l/m 0,8 km/h (0 Bft) 0 min 0 min 5,2 km/h (1 Bft)
20.01.2012 19:58 12,4 C 2,4 C 0,0 UV-I 0,0 C 55 % 95 % 0 % 1014,8 hPa 0,0 l/m 0,4 km/h (0 Bft) 0 min 0 min 5,2 km/h (1 Bft)
20.01.2012 20:00 12,2 C 2,4 C 0,0 UV-I 0,0 C 55 % 95 % 0 % 1014,8 hPa 0,0 l/m 0,4 km/h (0 Bft) 0 min 0 min 0,0 km/h (0 Bft)
20.01.2012 20:02 12,4 C 2,3 C 0,0 UV-I 0,0 C 55 % 95 % 0 % 1014,8 hPa 0,0 l/m 0,8 km/h (0 Bft) 0 min 0 min 4,8 km/h (1 Bft)
20.01.2012 20:04 12,4 C 2,3 C 0,0 UV-I 0,0 C 55 % 95 % 0 % 1015,1 hPa 0,0 l/m 0,8 km/h (0 Bft) 0 min 0 min 0,0 km/h (0 Bft)
20.01.2012 20:06 12,2 C 2,3 C 0,0 UV-I 0,0 C 55 % 95 % 0 % 1015,1 hPa 0,0 l/m 0,4 km/h (0 Bft) 0 min 0 min 0,0 km/h (0 Bft)
20.01.2012 20:08 12,2 C 2,3 C 0,0 UV-I 0,0 C 55 % 95 % 0 % 1015,1 hPa 0,0 l/m 0,4 km/h (0 Bft) 0 min 0 min 0,0 km/h (0 Bft)
20.01.2012 20:10 12,2 C 2,3 C 0,0 UV-I 0,0 C 55 % 95 % 0 % 1015,1 hPa 0,0 l/m 0,4 km/h (0 Bft) 0 min 0 min 0,0 km/h (0 Bft)
20.01.2012 20:12 12,2 C 2,3 C 0,0 UV-I 0,0 C 55 % 95 % 0 % 1015,1 hPa 0,0 l/m 0,4 km/h (0 Bft) 0 min 0 min 0,0 km/h (0 Bft)
20.01.2012 20:14 12,2 C 2,3 C 0,0 UV-I 0,0 C 55 % 95 % 0 % 1015,1 hPa 0,0 l/m 0,0 km/h (0 Bft) 0 min 0 min 0,0 km/h (0 Bft)
20.01.2012 20:16 12,2 C 2,3 C 0,0 UV-I 0,0 C 55 % 95 % 0 % 1015,1 hPa 0,0 l/m 0,0 km/h (0 Bft) 0 min 0 min 0,0 km/h (0 Bft)
20.01.2012 20:18 12,2 C 2,3 C 0,0 UV-I 0,0 C 55 % 95 % 0 % 1015,1 hPa 0,0 l/m 0,0 km/h (0 Bft) 0 min 0 min 0,0 km/h (0 Bft)
20.01.2012 20:20 12,2 C 2,3 C 0,0 UV-I 0,0 C 55 % 95 % 0 % 1015,1 hPa 0,0 l/m 0,0 km/h (0 Bft) 0 min 0 min 0,0 km/h (0 Bft)
20.01.2012 20:22 12,2 C 2,3 C 0,0 UV-I 0,0 C 55 % 95 % 0 % 1015,1 hPa 0,0 l/m 0,0 km/h (0 Bft) 0 min 0 min 0,0 km/h (0 Bft)
20.01.2012 20:24 12,2 C 2,3 C 0,0 UV-I 0,0 C 55 % 95 % 0 % 1015,4 hPa 0,0 l/m 0,0 km/h (0 Bft) 0 min 0 min 0,0 km/h (0 Bft)
20.01.2012 20:26 12,3 C 2,3 C 0,0 UV-I 0,0 C 55 % 95 % 0 % 1015,4 hPa 0,0 l/m 0,0 km/h (0 Bft) 0 min 0 min 0,0 km/h (0 Bft)
20.01.2012 20:28 12,2 C 2,2 C 0,0 UV-I 0,0 C 55 % 95 % 0 % 1015,4 hPa 0,0 l/m 0,0 km/h (0 Bft) 0 min 0 min 0,0 km/h (0 Bft)
20.01.2012 20:30 12,3 C 2,3 C 0,0 UV-I 0,0 C 55 % 95 % 0 % 1015,4 hPa 0,0 l/m 0,4 km/h (0 Bft) 0 min 0 min 5,2 km/h (1 Bft)
20.01.2012 20:32 12,3 C 2,2 C 0,0 UV-I 0,0 C 55 % 95 % 0 % 1015,4 hPa 0,0 l/m 0,8 km/h (0 Bft) 0 min 0 min 5,2 km/h (1 Bft)
20.01.2012 20:34 12,2 C 2,1 C 0,0 UV-I 0,0 C 55 % 95 % 0 % 1015,4 hPa 0,0 l/m 0,8 km/h (0 Bft) 0 min 0 min 0,0 km/h (0 Bft)
20.01.2012 20:36 12,3 C 2,1 C 0,0 UV-I 0,0 C 55 % 95 % 0 % 1015,4 hPa 0,0 l/m 1,2 km/h (1 Bft) 0 min 0 min 0,0 km/h (0 Bft)
20.01.2012 20:38 12,3 C 2,2 C 0,0 UV-I 0,0 C 55 % 95 % 0 % 1015,4 hPa 0,0 l/m 1,6 km/h (1 Bft) 0 min 0 min 0,0 km/h (0 Bft)
20.01.2012 20:40 12,3 C 2,2 C 0,0 UV-I 0,0 C 55 % 95 % 0 % 1015,4 hPa 0,0 l/m 1,6 km/h (1 Bft) 0 min 0 min 0,0 km/h (0 Bft)
20.01.2012 20:42 12,3 C 2,1 C 0,0 UV-I 0,0 C 55 % 95 % 0 % 1015,4 hPa 0,0 l/m 0,8 km/h (0 Bft) 0 min 0 min 0,0 km/h (0 Bft)
20.01.2012 20:44 12,3 C 2,1 C 0,0 UV-I 0,0 C 55 % 95 % 0 % 1015,2 hPa 0,0 l/m 1,2 km/h (1 Bft) 0 min 0 min 0,0 km/h (0 Bft)
20.01.2012 20:46 12,3 C 2,1 C 0,0 UV-I 0,0 C 55 % 95 % 0 % 1015,2 hPa 0,0 l/m 0,8 km/h (0 Bft) 0 min 0 min 4,4 km/h (1 Bft)
20.01.2012 20:48 12,3 C 2,1 C 0,0 UV-I 0,0 C 55 % 95 % 0 % 1015,2 hPa 0,0 l/m 1,2 km/h (1 Bft) 0 min 0 min 4,4 km/h (1 Bft)
20.01.2012 20:50 12,3 C 2,1 C 0,0 UV-I 0,0 C 55 % 95 % 0 % 1015,2 hPa 0,0 l/m 1,2 km/h (1 Bft) 0 min 0 min 0,0 km/h (0 Bft)
20.01.2012 20:52 12,3 C 2,1 C 0,0 UV-I 0,0 C 55 % 95 % 0 % 1015,2 hPa 0,0 l/m 0,8 km/h (0 Bft) 0 min 0 min 0,0 km/h (0 Bft)
20.01.2012 20:54 12,3 C 2,0 C 0,0 UV-I 0,0 C 55 % 95 % 0 % 1015,2 hPa 0,0 l/m 0,8 km/h (0 Bft) 0 min 0 min 0,0 km/h (0 Bft)
20.01.2012 20:56 12,3 C 2,1 C 0,0 UV-I 0,0 C 55 % 95 % 0 % 1015,2 hPa 0,0 l/m 0,8 km/h (0 Bft) 0 min 0 min 0,0 km/h (0 Bft)
20.01.2012 20:58 12,1 C 2,0 C 0,0 UV-I 0,0 C 55 % 95 % 0 % 1015,2 hPa 0,0 l/m 0,4 km/h (0 Bft) 0 min 0 min 0,0 km/h (0 Bft)
20.01.2012 21:00 12,3 C 2,0 C 0,0 UV-I 0,0 C 55 % 95 % 0 % 1015,2 hPa 0,0 l/m 0,4 km/h (0 Bft) 0 min 0 min 0,0 km/h (0 Bft)
20.01.2012 21:02 12,3 C 2,1 C 0,0 UV-I 0,0 C 55 % 95 % 0 % 1015,2 hPa 0,0 l/m 0,4 km/h (0 Bft) 0 min 0 min 7,6 km/h (2 Bft)
20.01.2012 21:04 12,1 C 2,1 C 0,0 UV-I 0,0 C 55 % 95 % 0 % 1015,2 hPa 0,0 l/m 0,4 km/h (0 Bft) 0 min 0 min 0,0 km/h (0 Bft)
20.01.2012 21:06 12,1 C 2,1 C 0,0 UV-I 0,0 C 55 % 95 % 0 % 1015,2 hPa 0,0 l/m 0,8 km/h (0 Bft) 0 min 0 min 0,0 km/h (0 Bft)
20.01.2012 21:08 12,1 C 2,1 C 0,0 UV-I 0,0 C 55 % 95 % 0 % 1015,2 hPa 0,0 l/m 0,8 km/h (0 Bft) 0 min 0 min 6,8 km/h (2 Bft)
20.01.2012 21:10 12,3 C 2,1 C 0,0 UV-I 0,0 C 55 % 95 % 0 % 1015,2 hPa 0,0 l/m 1,2 km/h (1 Bft) 0 min 0 min 6,8 km/h (2 Bft)
20.01.2012 21:12 12,3 C 2,1 C 0,0 UV-I 0,0 C 55 % 95 % 0 % 1015,2 hPa 0,0 l/m 1,2 km/h (1 Bft) 0 min 0 min 4,0 km/h (1 Bft)
20.01.2012 21:14 12,1 C 2,3 C 0,0 UV-I 0,0 C 55 % 95 % 0 % 1015,2 hPa 0,0 l/m 1,2 km/h (1 Bft) 0 min 0 min 5,2 km/h (1 Bft)
20.01.2012 21:16 12,1 C 2,2 C 0,0 UV-I 0,0 C 55 % 95 % 0 % 1015,2 hPa 0,0 l/m 1,2 km/h (1 Bft) 0 min 0 min 5,2 km/h (1 Bft)
20.01.2012 21:18 12,1 C 2,3 C 0,0 UV-I 0,0 C 55 % 95 % 0 % 1015,2 hPa 0,0 l/m 1,6 km/h (1 Bft) 0 min 0 min 4,8 km/h (1 Bft)
20.01.2012 21:20 12,1 C 2,3 C 0,0 UV-I 0,0 C 55 % 95 % 0 % 1015,2 hPa 0,0 l/m 2,0 km/h (1 Bft) 0 min 0 min 4,8 km/h (1 Bft)
20.01.2012 21:22 12,1 C 2,2 C 0,0 UV-I 0,0 C 55 % 95 % 0 % 1015,2 hPa 0,0 l/m 2,0 km/h (1 Bft) 0 min 0 min 4,4 km/h (1 Bft)
20.01.2012 21:24 12,1 C 2,2 C 0,0 UV-I 0,0 C 55 % 95 % 0 % 1015,7 hPa 0,0 l/m 2,0 km/h (1 Bft) 0 min 0 min 4,4 km/h (1 Bft)
20.01.2012 21:26 12,1 C 2,3 C 0,0 UV-I 0,0 C 55 % 96 % 0 % 1015,7 hPa 0,0 l/m 2,4 km/h (1 Bft) 0 min 0 min 0,0 km/h (0 Bft)
20.01.2012 21:28 12,1 C 2,3 C 0,0 UV-I 0,0 C 55 % 96 % 0 % 1015,7 hPa 0,0 l/m 2,0 km/h (1 Bft) 0 min 0 min 0,0 km/h (0 Bft)
20.01.2012 21:30 12,1 C 2,3 C 0,0 UV-I 0,0 C 55 % 96 % 0 % 1015,7 hPa 0,0 l/m 1,2 km/h (1 Bft) 0 min 0 min 0,0 km/h (0 Bft)
20.01.2012 21:32 12,2 C 2,3 C 0,0 UV-I 0,0 C 55 % 96 % 0 % 1015,7 hPa 0,0 l/m 1,6 km/h (1 Bft) 0 min 0 min 4,8 km/h (1 Bft)
20.01.2012 21:34 12,1 C 2,2 C 0,0 UV-I 0,0 C 55 % 96 % 0 % 1015,7 hPa 0,0 l/m 2,0 km/h (1 Bft) 0 min 0 min 4,8 km/h (1 Bft)
20.01.2012 21:36 12,1 C 2,2 C 0,0 UV-I 0,0 C 55 % 96 % 0 % 1015,7 hPa 0,0 l/m 2,0 km/h (1 Bft) 0 min 0 min 0,0 km/h (0 Bft)
20.01.2012 21:38 12,1 C 2,3 C 0,0 UV-I 0,0 C 55 % 96 % 0 % 1015,7 hPa 0,0 l/m 2,0 km/h (1 Bft) 0 min 0 min 4,8 km/h (1 Bft)
20.01.2012 21:40 12,2 C 2,3 C 0,0 UV-I 0,0 C 55 % 96 % 0 % 1015,7 hPa 0,0 l/m 2,4 km/h (1 Bft) 0 min 0 min 9,2 km/h (2 Bft)
20.01.2012 21:42 12,1 C 2,3 C 0,0 UV-I 0,0 C 55 % 96 % 0 % 1015,7 hPa 0,0 l/m 2,4 km/h (1 Bft) 0 min 0 min 9,2 km/h (2 Bft)
20.01.2012 21:44 12,2 C 2,4 C 0,0 UV-I 0,0 C 55 % 96 % 0 % 1015,7 hPa 0,0 l/m 2,0 km/h (1 Bft) 0 min 0 min 5,6 km/h (1 Bft)
20.01.2012 21:46 12,2 C 2,4 C 0,0 UV-I 0,0 C 55 % 96 % 0 % 1015,7 hPa 0,0 l/m 1,6 km/h (1 Bft) 0 min 0 min 4,4 km/h (1 Bft)
20.01.2012 21:48 12,1 C 2,4 C 0,0 UV-I 0,0 C 55 % 96 % 0 % 1015,7 hPa 0,0 l/m 2,0 km/h (1 Bft) 0 min 0 min 5,2 km/h (1 Bft)
20.01.2012 21:50 12,1 C 2,4 C 0,0 UV-I 0,0 C 55 % 96 % 0 % 1015,7 hPa 0,0 l/m 1,6 km/h (1 Bft) 0 min 0 min 5,2 km/h (1 Bft)
20.01.2012 21:52 12,1 C 2,4 C 0,0 UV-I 0,0 C 55 % 96 % 0 % 1015,7 hPa 0,0 l/m 1,2 km/h (1 Bft) 0 min 0 min 0,0 km/h (0 Bft)
20.01.2012 21:54 12,1 C 2,4 C 0,0 UV-I 0,0 C 55 % 96 % 0 % 1015,7 hPa 0,0 l/m 0,8 km/h (0 Bft) 0 min 0 min 0,0 km/h (0 Bft)
20.01.2012 21:56 12,2 C 2,4 C 0,0 UV-I 0,0 C 55 % 96 % 0 % 1015,7 hPa 0,0 l/m 0,8 km/h (0 Bft) 0 min 0 min 0,0 km/h (0 Bft)
20.01.2012 21:58 12,1 C 2,4 C 0,0 UV-I 0,0 C 55 % 96 % 0 % 1015,7 hPa 0,0 l/m 1,2 km/h (1 Bft) 0 min 0 min 7,2 km/h (2 Bft)
20.01.2012 22:00 12,2 C 2,4 C 0,0 UV-I 0,0 C 55 % 96 % 0 % 1015,7 hPa 0,0 l/m 1,2 km/h (1 Bft) 0 min 0 min 7,2 km/h (2 Bft)
20.01.2012 22:02 12,2 C 2,4 C 0,0 UV-I 0,0 C 55 % 96 % 0 % 1015,7 hPa 0,0 l/m 1,6 km/h (1 Bft) 0 min 0 min 5,2 km/h (1 Bft)
20.01.2012 22:04 12,1 C 2,4 C 0,0 UV-I 0,0 C 55 % 96 % 0 % 1016,1 hPa 0,0 l/m 2,0 km/h (1 Bft) 0 min 0 min 0,0 km/h (0 Bft)
20.01.2012 22:06 12,2 C 2,4 C 0,0 UV-I 0,0 C 55 % 96 % 0 % 1016,1 hPa 0,0 l/m 2,4 km/h (1 Bft) 0 min 0 min 4,0 km/h (1 Bft)
20.01.2012 22:08 12,2 C 2,4 C 0,0 UV-I 0,0 C 55 % 96 % 0 % 1016,1 hPa 0,0 l/m 3,2 km/h (1 Bft) 0 min 0 min 8,4 km/h (2 Bft)
20.01.2012 22:10 12,2 C 2,3 C 0,0 UV-I 0,0 C 55 % 96 % 0 % 1016,1 hPa 0,0 l/m 3,2 km/h (1 Bft) 0 min 0 min 8,4 km/h (2 Bft)
20.01.2012 22:12 12,2 C 2,3 C 0,0 UV-I 0,0 C 55 % 96 % 0 % 1016,1 hPa 0,0 l/m 3,2 km/h (1 Bft) 0 min 0 min 7,6 km/h (2 Bft)
20.01.2012 22:14 12,2 C 2,3 C 0,0 UV-I 0,0 C 55 % 96 % 0 % 1016,1 hPa 0,0 l/m 3,6 km/h (1 Bft) 0 min 0 min 7,6 km/h (2 Bft)
20.01.2012 22:16 12,1 C 2,3 C 0,0 UV-I 0,0 C 55 % 96 % 0 % 1016,1 hPa 0,0 l/m 3,2 km/h (1 Bft) 0 min 0 min 7,6 km/h (2 Bft)
20.01.2012 22:18 12,2 C 2,3 C 0,0 UV-I 0,0 C 55 % 96 % 0 % 1016,1 hPa 0,0 l/m 2,8 km/h (1 Bft) 0 min 0 min 6,8 km/h (2 Bft)
20.01.2012 22:20 12,2 C 2,3 C 0,0 UV-I 0,0 C 55 % 96 % 0 % 1016,1 hPa 0,0 l/m 2,8 km/h (1 Bft) 0 min 0 min 6,8 km/h (2 Bft)
20.01.2012 22:22 12,2 C 2,3 C 0,0 UV-I 0,0 C 55 % 96 % 0 % 1016,1 hPa 0,0 l/m 2,8 km/h (1 Bft) 0 min 0 min 4,4 km/h (1 Bft)
20.01.2012 22:24 12,2 C 2,3 C 0,0 UV-I 0,0 C 55 % 96 % 0 % 1016,1 hPa 0,0 l/m 2,4 km/h (1 Bft) 0 min 0 min 0,0 km/h (0 Bft)
20.01.2012 22:26 12,2 C 2,3 C 0,0 UV-I 0,0 C 55 % 96 % 0 % 1016,1 hPa 0,0 l/m 2,8 km/h (1 Bft) 0 min 0 min 5,2 km/h (1 Bft)
20.01.2012 22:28 12,2 C 2,3 C 0,0 UV-I 0,0 C 55 % 96 % 0 % 1016,1 hPa 0,0 l/m 2,8 km/h (1 Bft) 0 min 0 min 5,2 km/h (1 Bft)
20.01.2012 22:30 12,2 C 2,3 C 0,0 UV-I 0,0 C 55 % 96 % 0 % 1016,1 hPa 0,0 l/m 2,0 km/h (1 Bft) 0 min 0 min 0,0 km/h (0 Bft)
20.01.2012 22:32 12,2 C 2,3 C 0,0 UV-I 0,0 C 55 % 96 % 0 % 1016,1 hPa 0,0 l/m 2,4 km/h (1 Bft) 0 min 0 min 5,2 km/h (1 Bft)
20.01.2012 22:34 12,2 C 2,3 C 0,0 UV-I 0,0 C 55 % 96 % 0 % 1016,1 hPa 0,0 l/m 2,0 km/h (1 Bft) 0 min 0 min 6,0 km/h (2 Bft)
20.01.2012 22:36 12,2 C 2,3 C 0,0 UV-I 0,0 C 55 % 96 % 0 % 1016,1 hPa 0,0 l/m 2,0 km/h (1 Bft) 0 min 0 min 6,0 km/h (2 Bft)
20.01.2012 22:38 12,2 C 2,3 C 0,0 UV-I 0,0 C 55 % 96 % 0 % 1016,1 hPa 0,0 l/m 1,6 km/h (1 Bft) 0 min 0 min 5,6 km/h (1 Bft)
20.01.2012 22:40 12,2 C 2,2 C 0,0 UV-I 0,0 C 55 % 96 % 0 % 1016,1 hPa 0,0 l/m 2,4 km/h (1 Bft) 0 min 0 min 5,6 km/h (1 Bft)
20.01.2012 22:42 12,2 C 2,2 C 0,0 UV-I 0,0 C 55 % 96 % 0 % 1016,1 hPa 0,0 l/m 2,0 km/h (1 Bft) 0 min 0 min 5,2 km/h (1 Bft)
20.01.2012 22:44 12,2 C 2,2 C 0,0 UV-I 0,0 C 55 % 96 % 0 % 1016,3 hPa 0,0 l/m 2,0 km/h (1 Bft) 0 min 0 min 0,0 km/h (0 Bft)
20.01.2012 22:46 12,2 C 2,2 C 0,0 UV-I 0,0 C 55 % 96 % 0 % 1016,3 hPa 0,0 l/m 2,0 km/h (1 Bft) 0 min 0 min 4,4 km/h (1 Bft)
20.01.2012 22:48 12,2 C 2,3 C 0,0 UV-I 0,0 C 55 % 96 % 0 % 1016,3 hPa 0,0 l/m 2,0 km/h (1 Bft) 0 min 0 min 4,4 km/h (1 Bft)
20.01.2012 22:50 12,2 C 2,3 C 0,0 UV-I 0,0 C 55 % 96 % 0 % 1016,3 hPa 0,0 l/m 2,0 km/h (1 Bft) 0 min 0 min 0,0 km/h (0 Bft)
20.01.2012 22:52 12,2 C 2,3 C 0,0 UV-I 0,0 C 55 % 96 % 0 % 1016,3 hPa 0,0 l/m 1,2 km/h (1 Bft) 0 min 0 min 0,0 km/h (0 Bft)
20.01.2012 22:54 12,2 C 2,3 C 0,0 UV-I 0,0 C 55 % 96 % 0 % 1016,3 hPa 0,0 l/m 1,2 km/h (1 Bft) 0 min 0 min 0,0 km/h (0 Bft)
20.01.2012 22:56 12,2 C 2,3 C 0,0 UV-I 0,0 C 55 % 96 % 0 % 1016,3 hPa 0,0 l/m 0,8 km/h (0 Bft) 0 min 0 min 0,0 km/h (0 Bft)
20.01.2012 22:58 12,2 C 2,2 C 0,0 UV-I 0,0 C 55 % 96 % 0 % 1016,3 hPa 0,0 l/m 0,4 km/h (0 Bft) 0 min 0 min 0,0 km/h (0 Bft)
20.01.2012 23:00 12,2 C 2,2 C 0,0 UV-I 0,0 C 55 % 96 % 0 % 1016,3 hPa 0,0 l/m 0,4 km/h (0 Bft) 0 min 0 min 0,0 km/h (0 Bft)
20.01.2012 23:02 12,2 C 2,2 C 0,0 UV-I 0,0 C 55 % 96 % 0 % 1016,3 hPa 0,0 l/m 0,4 km/h (0 Bft) 0 min 0 min 0,0 km/h (0 Bft)
20.01.2012 23:04 12,2 C 2,2 C 0,0 UV-I 0,0 C 55 % 96 % 0 % 1016,2 hPa 0,0 l/m 0,8 km/h (0 Bft) 0 min 0 min 6,8 km/h (2 Bft)
20.01.2012 23:06 12,2 C 2,1 C 0,0 UV-I 0,0 C 55 % 96 % 0 % 1016,2 hPa 0,1 l/m 0,8 km/h (0 Bft) 0 min 0 min 6,8 km/h (2 Bft)
20.01.2012 23:08 12,2 C 2,1 C 0,0 UV-I 0,0 C 55 % 96 % 0 % 1016,2 hPa 0,0 l/m 1,2 km/h (1 Bft) 0 min 0 min 0,0 km/h (0 Bft)
20.01.2012 23:10 12,2 C 2,1 C 0,0 UV-I 0,0 C 55 % 96 % 0 % 1016,2 hPa 0,0 l/m 0,8 km/h (0 Bft) 0 min 0 min 5,6 km/h (1 Bft)
20.01.2012 23:12 12,2 C 2,1 C 0,0 UV-I 0,0 C 55 % 96 % 0 % 1016,2 hPa 0,0 l/m 0,8 km/h (0 Bft) 0 min 0 min 5,6 km/h (1 Bft)
20.01.2012 23:14 12,2 C 2,2 C 0,0 UV-I 0,0 C 55 % 96 % 0 % 1016,2 hPa 0,0 l/m 1,2 km/h (1 Bft) 0 min 0 min 5,2 km/h (1 Bft)
20.01.2012 23:16 12,2 C 2,1 C 0,0 UV-I 0,0 C 55 % 96 % 0 % 1016,2 hPa 0,0 l/m 1,2 km/h (1 Bft) 0 min 0 min 6,8 km/h (2 Bft)
20.01.2012 23:18 12,2 C 2,3 C 0,0 UV-I 0,0 C 55 % 96 % 0 % 1016,2 hPa 0,0 l/m 1,2 km/h (1 Bft) 0 min 0 min 6,8 km/h (2 Bft)
20.01.2012 23:20 12,2 C 2,2 C 0,0 UV-I 0,0 C 55 % 96 % 0 % 1016,2 hPa 0,0 l/m 1,2 km/h (1 Bft) 0 min 0 min 5,6 km/h (1 Bft)
20.01.2012 23:22 12,2 C 2,3 C 0,0 UV-I 0,0 C 55 % 96 % 0 % 1016,2 hPa 0,0 l/m 1,2 km/h (1 Bft) 0 min 0 min 5,6 km/h (1 Bft)
20.01.2012 23:24 12,2 C 2,3 C 0,0 UV-I 0,0 C 55 % 96 % 0 % 1016,2 hPa 0,0 l/m 1,6 km/h (1 Bft) 0 min 0 min 4,8 km/h (1 Bft)
20.01.2012 23:26 12,2 C 2,3 C 0,0 UV-I 0,0 C 55 % 96 % 0 % 1016,2 hPa 0,0 l/m 1,6 km/h (1 Bft) 0 min 0 min 6,4 km/h (2 Bft)
20.01.2012 23:28 12,2 C 2,3 C 0,0 UV-I 0,0 C 55 % 96 % 0 % 1016,2 hPa 0,0 l/m 1,6 km/h (1 Bft) 0 min 0 min 6,4 km/h (2 Bft)
20.01.2012 23:30 12,2 C 2,2 C 0,0 UV-I 0,0 C 55 % 96 % 0 % 1016,2 hPa 0,0 l/m 2,0 km/h (1 Bft) 0 min 0 min 4,8 km/h (1 Bft)
20.01.2012 23:32 12,2 C 2,3 C 0,0 UV-I 0,0 C 55 % 96 % 0 % 1016,2 hPa 0,0 l/m 2,0 km/h (1 Bft) 0 min 0 min 4,8 km/h (1 Bft)
20.01.2012 23:34 12,2 C 2,3 C 0,0 UV-I 0,0 C 55 % 96 % 0 % 1016,2 hPa 0,0 l/m 2,8 km/h (1 Bft) 0 min 0 min 4,0 km/h (1 Bft)
20.01.2012 23:36 12,2 C 2,3 C 0,0 UV-I 0,0 C 55 % 96 % 0 % 1016,2 hPa 0,0 l/m 2,8 km/h (1 Bft) 0 min 0 min 4,0 km/h (1 Bft)
20.01.2012 23:38 12,2 C 2,3 C 0,0 UV-I 0,0 C 55 % 96 % 0 % 1016,2 hPa 0,0 l/m 2,8 km/h (1 Bft) 0 min 0 min 5,2 km/h (1 Bft)
20.01.2012 23:40 12,2 C 2,3 C 0,0 UV-I 0,0 C 55 % 96 % 0 % 1016,2 hPa 0,0 l/m 2,8 km/h (1 Bft) 0 min 0 min 6,0 km/h (2 Bft)
20.01.2012 23:42 12,2 C 2,3 C 0,0 UV-I 0,0 C 55 % 96 % 0 % 1016,2 hPa 0,0 l/m 2,4 km/h (1 Bft) 0 min 0 min 6,0 km/h (2 Bft)
20.01.2012 23:44 12,2 C 2,3 C 0,0 UV-I 0,0 C 55 % 96 % 0 % 1016,3 hPa 0,0 l/m 2,0 km/h (1 Bft) 0 min 0 min 4,0 km/h (1 Bft)
20.01.2012 23:46 12,2 C 2,3 C 0,0 UV-I 0,0 C 55 % 96 % 0 % 1016,3 hPa 0,0 l/m 1,6 km/h (1 Bft) 0 min 0 min 6,0 km/h (2 Bft)
20.01.2012 23:48 12,1 C 2,3 C 0,0 UV-I 0,0 C 55 % 96 % 0 % 1016,3 hPa 0,0 l/m 1,6 km/h (1 Bft) 0 min 0 min 6,0 km/h (2 Bft)
20.01.2012 23:50 12,2 C 2,3 C 0,0 UV-I 0,0 C 55 % 96 % 0 % 1016,3 hPa 0,0 l/m 1,2 km/h (1 Bft) 0 min 0 min 5,6 km/h (1 Bft)
20.01.2012 23:54 12,1 C 2,3 C 0,0 UV-I 0,0 C 55 % 96 % 0 % 1016,3 hPa 0,0 l/m 0,8 km/h (0 Bft) 0 min 0 min 0,0 km/h (0 Bft)
20.01.2012 23:56 12,2 C 2,3 C 0,0 UV-I 0,0 C 55 % 96 % 0 % 1016,3 hPa 0,0 l/m 0,8 km/h (0 Bft) 0 min 0 min 0,0 km/h (0 Bft)
20.01.2012 23:58 12,2 C 2,3 C 0,0 UV-I 0,0 C 55 % 96 % 0 % 1016,3 hPa 0,0 l/m 0,4 km/h (0 Bft) 0 min 0 min 0,0 km/h (0 Bft)
_ Min-Zeit 08:38 20:54 00:00 00:00 07:24 07:30 00:00 01:04 - 17:26 - - 00:04
Minimum _ 11,3 C 2,0 C 0,0 UV-I 0,0 C 52 % 86 % 0 % 1011,2 hPa - 0,0 km/h (0 Bft) - - 0,0 km/h (0 Bft)
_ Max-Zeit 14:20 01:20 13:44 13:46 00:00 21:26 13:40 22:44 01:28 01:34 13:34 00:00 14:12
Maximum _ 13,0 C 6,4 C 0,6 UV-I 3,8 C 59 % 96 % 100 % 1016,3 hPa 0,6 l/m 19,7 km/h
SO (3 Bft)
2 min 2 min 47,0 km/h
W (6 Bft)
Durchschnitt _ 12,1 C 4,1 C 0,0 UV-I 0,1 C 55 % 92 % 2 % 1013,5 hPa #5,3 l/m 7,3 km/h (2 Bft) #18 min. #3:12 h 13,0 km/h (3 Bft)
© 2012 W. Hausmann